CW9107 Weather Reports


time (UTC)temp
F
wind
direction
speed
knots
gust
knots
rain 1hr
in
rain 24hr
in
rain mn
in
humidity
%
barometer
mb
20260506213403 54 278 1.7 3.5 0.00 0.00 0.00 84 1020.9
20260506213303 54 278 1.7 3.5 0.00 0.00 0.00 84 1020.9
20260506213203 54 279 1.7 3.5 0.00 0.00 0.00 85 1020.9
20260506213103 54 280 1.7 3.5 0.00 0.00 0.00 84 1020.9
20260506213003 54 280 1.7 3.5 0.00 0.00 0.00 84 1020.9
20260506212903 54 279 1.7 3.5 0.00 0.00 0.00 84 1020.9
20260506212703 55 279 1.7 3.5 0.00 0.00 0.00 84 1021.0
20260506212603 55 279 1.7 3.5 0.00 0.00 0.00 84 1020.9
20260506212503 55 279 1.7 3.5 0.00 0.00 0.00 84 1020.9
20260506212403 55 279 1.7 3.5 0.00 0.00 0.00 84 1020.9
20260506212306 55 279 1.7 5.2 0.00 0.00 0.00 84 1020.9
20260506212217 55 279 1.7 5.2 0.00 0.00 0.00 84 1020.9
20260506212203 55 280 1.7 5.2 0.00 0.00 0.00 84 1021.0
20260506212103 55 280 1.7 5.2 0.00 0.00 0.00 84 1020.9
20260506211803 55 280 1.7 5.2 0.00 0.00 0.00 83 1020.9
20260506211703 55 281 1.7 5.2 0.00 0.00 0.00 83 1020.9
20260506211603 55 281 1.7 5.2 0.00 0.00 0.00 83 1020.9
20260506211503 55 281 1.7 5.2 0.00 0.00 0.00 83 1020.9
20260506211403 55 280 1.7 5.2 0.00 0.00 0.00 83 1021.0
20260506211303 55 280 1.7 5.2 0.00 0.00 0.00 83 1021.0
20260506211203 55 279 1.7 5.2 0.00 0.00 0.00 83 1021.0
20260506211117 55 278 1.7 5.2 0.00 0.00 0.00 83 1021.0
20260506211103 55 278 1.7 5.2 0.00 0.00 0.00 83 1021.0
20260506211003 55 276 1.7 5.2 0.00 0.00 0.00 83 1021.0
20260506210803 55 279 1.7 5.2 0.00 0.00 0.00 83 1020.9
20260506210703 55 279 1.7 5.2 0.00 0.00 0.00 83 1021.0
20260506210603 55 279 1.7 5.2 0.00 0.00 0.00 83 1020.8
20260506210503 55 279 1.7 5.2 0.00 0.00 0.00 83 1020.9
20260506210403 55 280 1.7 4.3 0.00 0.00 0.00 83 1020.9
20260506210303 55 277 1.7 4.3 0.00 0.00 0.00 83 1020.9
20260506210203 55 276 1.7 4.3 0.00 0.00 0.00 83 1020.9
20260506210003 55 278 1.7 4.3 0.00 0.00 0.00 83 1020.9
20260506205903 55 276 1.7 4.3 0.00 0.00 0.00 83 1021.0
20260506205803 55 276 1.7 4.3 0.00 0.00 0.00 83 1020.9
20260506205703 55 276 1.7 4.3 0.00 0.00 0.00 83 1020.9
20260506205603 55 276 1.7 4.3 0.00 0.00 0.00 83 1020.9
20260506205503 55 276 1.7 4.3 0.00 0.00 0.00 83 1020.9
20260506205417 55 275 1.7 4.3 0.00 0.00 0.00 83 1020.9
20260506205403 56 275 1.7 4.3 0.00 0.00 0.00 83 1020.9
20260506205305 55 278 1.7 5.2 0.00 0.00 0.00 83 1020.8
20260506205217 55 279 1.7 5.2 0.00 0.00 0.00 83 1020.8
20260506205103 55 278 1.7 5.2 0.00 0.00 0.00 83 1020.8
20260506204903 55 281 2.6 5.2 0.00 0.00 0.00 83 1020.8
20260506204804 55 280 2.6 5.2 0.00 0.00 0.00 83 1020.8
20260506204703 55 279 2.6 5.2 0.00 0.00 0.00 83 1020.8
20260506204603 55 278 2.6 5.2 0.00 0.00 0.00 83 1020.7
20260506204517 55 278 2.6 5.2 0.00 0.00 0.00 83 1020.8
20260506204503 55 279 2.6 5.2 0.00 0.00 0.00 83 1020.8
20260506204403 55 282 2.6 5.2 0.00 0.00 0.00 83 1020.9
20260506204203 55 282 2.6 5.2 0.00 0.00 0.00 82 1020.8
20260506204103 55 283 2.6 5.2 0.00 0.00 0.00 82 1020.9
20260506204003 55 281 2.6 3.5 0.00 0.00 0.00 83 1020.9
20260506203903 55 279 1.7 3.5 0.00 0.00 0.00 83 1020.9
20260506203803 55 278 1.7 3.5 0.00 0.00 0.00 83 1020.8
20260506203718 55 277 1.7 3.5 0.00 0.00 0.00 83 1020.9
20260506203704 55 277 1.7 3.5 0.00 0.00 0.00 83 1020.8
20260506203403 55 274 1.7 3.5 0.00 0.00 0.00 83 1020.8
20260506203303 55 274 1.7 3.5 0.00 0.00 0.00 82 1020.8
20260506203203 55 274 1.7 3.5 0.00 0.00 0.00 82 1020.8
20260506203104 55 274 1.7 3.5 0.00 0.00 0.00 82 1020.8
20260506202804 55 279 1.7 3.5 0.00 0.00 0.00 82 1020.8
20260506202704 55 283 1.7 3.5 0.00 0.00 0.00 82 1020.8
20260506202603 56 283 1.7 3.5 0.00 0.00 0.00 82 1020.8
20260506202503 56 287 1.7 3.5 0.00 0.00 0.00 82 1020.8
20260506202404 56 287 1.7 3.5 0.00 0.00 0.00 82 1020.8
20260506202306 56 287 1.7 3.5 0.00 0.00 0.00 82 1020.8
20260506202203 56 287 1.7 3.5 0.00 0.00 0.00 82 1020.7
20260506202103 56 286 1.7 4.3 0.00 0.00 0.00 82 1020.8
20260506202003 56 287 1.7 4.3 0.00 0.00 0.00 82 1020.8
20260506201903 56 286 1.7 4.3 0.00 0.00 0.00 82 1020.8
20260506201817 56 285 1.7 4.3 0.00 0.00 0.00 82 1020.7
20260506201803 56 285 1.7 4.3 0.00 0.00 0.00 82 1020.7
20260506201704 56 283 1.7 4.3 0.00 0.00 0.00 82 1020.8
20260506201504 56 280 1.7 4.3 0.00 0.00 0.00 82 1020.7
20260506201403 56 281 1.7 4.3 0.00 0.00 0.00 82 1020.8
20260506201304 56 281 1.7 4.3 0.00 0.00 0.00 82 1020.7
20260506201218 56 282 1.7 4.3 0.00 0.00 0.00 82 1020.7
20260506201103 56 280 1.7 3.5 0.00 0.00 0.00 82 1020.8
20260506200903 56 282 1.7 3.5 0.00 0.00 0.00 82 1020.8
20260506200803 56 283 1.7 3.5 0.00 0.00 0.00 82 1020.8
20260506200703 56 282 1.7 3.5 0.00 0.00 0.00 82 1020.7
20260506200618 56 282 1.7 3.5 0.00 0.00 0.00 82 1020.8
20260506200603 56 282 1.7 3.5 0.00 0.00 0.00 82 1020.8
20260506200503 56 282 1.7 3.5 0.00 0.00 0.00 82 1020.7
20260506200318 56 282 1.7 3.5 0.00 0.00 0.00 83 1020.7
20260506200303 56 282 1.7 3.5 0.00 0.00 0.00 83 1020.6
20260506200203 56 283 1.7 3.5 0.00 0.00 0.00 83 1020.7
20260506200005 56 284 1.7 3.5 0.00 0.00 0.00 83 1020.6
20260506195903 56 285 1.7 4.3 0.00 0.00 0.00 83 1020.6
20260506195803 56 283 1.7 4.3 0.00 0.00 0.00 83 1020.7
20260506195703 55 282 1.7 4.3 0.00 0.00 0.00 83 1020.6
20260506195603 55 279 1.7 4.3 0.00 0.00 0.00 83 1020.6
20260506195503 55 277 1.7 4.3 0.00 0.00 0.00 83 1020.6
20260506195403 55 276 1.7 4.3 0.00 0.00 0.00 83 1020.7
20260506195305 55 275 1.7 4.3 0.00 0.00 0.00 83 1020.6
20260506195204 55 274 1.7 4.3 0.00 0.00 0.00 83 1020.6
20260506195119 55 273 1.7 4.3 0.00 0.00 0.00 83 1020.6
20260506195103 55 272 1.7 4.3 0.00 0.00 0.00 83 1020.6
20260506194918 55 270 1.7 3.5 0.00 0.00 0.00 83 1020.6
20260506194804 55 272 1.7 3.5 0.00 0.00 0.00 83 1020.7
20260506194604 55 278 1.7 5.2 0.00 0.00 0.00 83 1020.7
20260506194504 55 279 1.7 5.2 0.00 0.00 0.00 83 1020.7
20260506194404 55 279 1.7 5.2 0.00 0.00 0.00 83 1020.7
20260506194318 55 281 1.7 5.2 0.00 0.00 0.00 83 1020.7
20260506194303 55 280 1.7 5.2 0.00 0.00 0.00 83 1020.7
20260506194203 55 281 2.6 5.2 0.00 0.00 0.00 83 1020.7
20260506194005 55 281 2.6 5.2 0.00 0.00 0.00 83 1020.6
20260506193903 55 281 2.6 5.2 0.00 0.00 0.00 83 1020.6
20260506193819 55 281 2.6 5.2 0.00 0.00 0.00 83 1020.7
20260506193803 55 281 1.7 5.2 0.00 0.00 0.00 83 1020.7
20260506193717 55 279 1.7 5.2 0.00 0.00 0.00 83 1020.6
20260506193703 55 279 1.7 5.2 0.00 0.00 0.00 83 1020.6
20260506193403 55 282 1.7 5.2 0.00 0.00 0.00 83 1020.6
20260506193303 55 279 1.7 5.2 0.00 0.00 0.00 83 1020.7
20260506193203 55 278 1.7 5.2 0.00 0.00 0.00 83 1020.6
20260506193103 55 279 1.7 5.2 0.00 0.00 0.00 84 1020.6
20260506193003 55 280 1.7 5.2 0.00 0.00 0.00 84 1020.7
20260506192903 55 281 1.7 5.2 0.00 0.00 0.00 84 1020.6
20260506192703 55 282 2.6 5.2 0.00 0.00 0.00 83 1020.6
20260506192603 55 282 1.7 5.2 0.00 0.00 0.00 83 1020.6
20260506192503 55 281 1.7 5.2 0.00 0.00 0.00 83 1020.6
20260506192403 55 279 1.7 5.2 0.00 0.00 0.00 83 1020.5
20260506192218 55 280 1.7 4.3 0.00 0.00 0.00 84 1020.5
20260506192203 55 281 1.7 4.3 0.00 0.00 0.00 84 1020.5
20260506192103 55 280 1.7 4.3 0.00 0.00 0.00 84 1020.5
20260506191903 55 278 1.7 3.5 0.00 0.00 0.00 84 1020.5
20260506191803 55 277 1.7 3.5 0.00 0.00 0.00 84 1020.5
20260506191703 55 278 1.7 3.5 0.00 0.00 0.00 84 1020.4
20260506191603 55 278 1.7 3.5 0.00 0.00 0.00 84 1020.5
20260506191503 55 278 1.7 3.5 0.00 0.00 0.00 84 1020.4
20260506191417 55 279 1.7 3.5 0.00 0.00 0.00 84 1020.4
20260506191403 55 280 1.7 3.5 0.00 0.00 0.00 84 1020.4
20260506191303 55 279 1.7 3.5 0.00 0.00 0.00 84 1020.4
20260506191218 55 279 1.7 3.5 0.00 0.00 0.00 84 1020.4
20260506190903 55 277 1.7 3.5 0.00 0.00 0.00 84 1020.5
20260506190803 55 278 1.7 3.5 0.00 0.00 0.00 84 1020.4
20260506190717 55 278 1.7 3.5 0.00 0.00 0.00 84 1020.3
20260506190703 55 280 1.7 3.5 0.00 0.00 0.00 84 1020.3
20260506190603 55 282 1.7 3.5 0.00 0.00 0.00 84 1020.4
20260506190417 55 286 1.7 3.5 0.00 0.00 0.00 84 1020.4
20260506190403 55 285 1.7 3.5 0.00 0.00 0.00 84 1020.3
20260506190303 55 286 1.7 3.5 0.00 0.00 0.00 84 1020.4
20260506190006 55 292 1.7 3.5 0.00 0.00 0.00 85 1020.3
20260506185903 55 294 1.7 3.5 0.00 0.00 0.00 85 1020.3
20260506185803 54 296 1.7 3.5 0.00 0.00 0.00 85 1020.4
20260506185705 54 294 1.7 3.5 0.00 0.00 0.00 85 1020.4
20260506185617 54 294 1.7 3.5 0.00 0.00 0.00 85 1020.4
20260506185604 55 294 1.7 3.5 0.00 0.00 0.00 85 1020.4
20260506185503 54 294 1.7 3.5 0.00 0.00 0.00 85 1020.3
20260506185306 55 299 1.7 2.6 0.00 0.00 0.00 85 1020.3
20260506185204 54 301 1.7 2.6 0.00 0.00 0.00 85 1020.3
20260506185103 54 301 1.7 2.6 0.00 0.00 0.00 85 1020.2
20260506185003 54 296 1.7 2.6 0.00 0.00 0.00 85 1020.2
20260506184903 54 293 1.7 2.6 0.00 0.00 0.00 85 1020.2
20260506184803 54 289 1.7 2.6 0.00 0.00 0.00 86 1020.2
20260506184703 54 290 1.7 2.6 0.00 0.00 0.00 86 1020.2
20260506184603 54 286 1.7 2.6 0.00 0.00 0.00 86 1020.2
20260506184503 54 277 1.7 2.6 0.00 0.00 0.00 86 1020.2
20260506184404 54 272 1.7 2.6 0.00 0.00 0.00 85 1020.3
20260506184303 54 269 1.7 2.6 0.00 0.00 0.00 85 1020.1
20260506184204 54 267 1.7 2.6 0.00 0.00 0.00 85 1020.2
20260506184116 54 268 1.7 2.6 0.00 0.00 0.00 85 1020.1
20260506184103 54 268 1.7 2.6 0.00 0.00 0.00 85 1020.2
20260506184003 54 270 1.7 2.6 0.00 0.00 0.00 85 1020.2
20260506183818 54 275 1.7 2.6 0.00 0.00 0.00 85 1020.3
20260506183803 54 277 1.7 2.6 0.00 0.00 0.00 85 1020.3
20260506183704 54 280 1.7 2.6 0.00 0.00 0.00 86 1020.3
20260506183503 54 284 1.7 2.6 0.00 0.00 0.00 86 1020.2
20260506183403 54 291 1.7 2.6 0.00 0.00 0.00 86 1020.3
20260506183303 54 296 1.7 2.6 0.00 0.00 0.00 86 1020.2
20260506183203 54 300 1.7 2.6 0.00 0.00 0.00 86 1020.2
20260506183103 54 299 1.7 2.6 0.00 0.00 0.00 86 1020.2
20260506183003 54 298 1.7 2.6 0.00 0.00 0.00 86 1020.1
20260506182903 54 297 1.7 2.6 0.00 0.00 0.00 86 1020.1
20260506182818 53 294 1.7 2.6 0.00 0.00 0.00 86 1020.1
20260506182803 54 293 1.7 2.6 0.00 0.00 0.00 86 1020.1
20260506182704 53 290 1.7 3.5 0.00 0.00 0.00 86 1020.1
20260506182503 53 289 1.7 3.5 0.00 0.00 0.00 86 1020.1
20260506182403 53 285 1.7 3.5 0.00 0.00 0.00 86 1020.1
20260506182306 53 282 1.7 3.5 0.00 0.00 0.00 86 1020.1
20260506182203 53 279 1.7 3.5 0.00 0.00 0.00 86 1020.1
20260506182103 53 280 1.7 3.5 0.00 0.00 0.00 86 1020.1
20260506182003 53 280 1.7 3.5 0.00 0.00 0.00 86 1020.1
20260506181803 53 281 1.7 3.5 0.00 0.00 0.00 86 1020.1
20260506181717 53 282 1.7 3.5 0.00 0.00 0.00 86 1020.1
20260506181703 53 282 1.7 3.5 0.00 0.00 0.00 86 1020.0
20260506181603 53 282 1.7 3.5 0.00 0.00 0.00 86 1020.1
20260506181403 53 282 1.7 3.5 0.00 0.00 0.00 86 1020.0
20260506181303 53 282 1.7 3.5 0.00 0.00 0.00 86 1020.0
20260506181203 53 282 1.7 3.5 0.00 0.00 0.00 86 1020.0
20260506181104 53 281 1.7 3.5 0.00 0.00 0.00 86 1020.0
20260506181003 53 283 1.7 3.5 0.00 0.00 0.00 86 1020.0
20260506180903 53 285 1.7 3.5 0.00 0.00 0.00 86 1020.0
20260506180803 53 286 1.7 3.5 0.00 0.00 0.00 86 1020.0
20260506180716 53 284 1.7 3.5 0.00 0.00 0.00 86 1020.0
20260506180703 53 285 1.7 3.5 0.00 0.00 0.00 86 1020.0
20260506180603 53 284 1.7 3.5 0.00 0.00 0.00 86 1020.0
20260506180403 53 285 1.7 3.5 0.00 0.00 0.00 86 1020.0
20260506180303 53 286 1.7 3.5 0.00 0.00 0.00 86 1020.0
20260506180203 53 290 1.7 3.5 0.00 0.00 0.00 86 1020.0
20260506180103 53 289 1.7 3.5 0.00 0.00 0.00 86 1020.0
20260506180006 53 288 1.7 3.5 0.00 0.00 0.00 86 1019.9
20260506175903 53 286 1.7 3.5 0.00 0.00 0.00 86 1020.0
20260506175803 53 285 1.7 2.6 0.00 0.00 0.00 86 1020.0
20260506175703 53 285 1.7 2.6 0.00 0.00 0.00 86 1020.0
20260506175603 53 286 1.7 2.6 0.00 0.00 0.00 86 1020.0
20260506175404 53 286 1.7 2.6 0.00 0.00 0.00 86 1020.0
20260506175306 53 285 1.7 2.6 0.00 0.00 0.00 86 1020.0
20260506175218 53 282 1.7 2.6 0.00 0.00 0.00 86 1020.0
20260506175204 53 282 1.7 2.6 0.00 0.00 0.00 86 1020.0
20260506175118 53 282 1.7 2.6 0.00 0.00 0.00 86 1020.1
20260506175103 53 281 1.7 2.6 0.00 0.00 0.00 86 1020.1
20260506174805 53 279 1.7 3.5 0.00 0.00 0.00 86 1020.1
20260506174703 53 279 1.7 3.5 0.00 0.00 0.00 86 1020.1
20260506174603 53 280 1.7 3.5 0.00 0.00 0.00 86 1020.1
20260506174503 53 282 1.7 3.5 0.00 0.00 0.00 86 1020.1
20260506174403 53 282 1.7 3.5 0.00 0.00 0.00 86 1020.1
20260506174303 53 283 1.7 3.5 0.00 0.00 0.00 86 1020.1
20260506174204 53 283 1.7 3.5 0.00 0.00 0.00 86 1020.1
20260506174103 53 285 1.7 3.5 0.00 0.00 0.00 86 1020.1
20260506174003 53 291 1.7 3.5 0.00 0.00 0.00 86 1020.1
20260506173903 53 293 1.7 3.5 0.00 0.00 0.00 86 1020.1
20260506173804 53 296 1.7 3.5 0.00 0.00 0.00 86 1020.1
20260506173703 53 295 1.7 3.5 0.00 0.00 0.00 86 1020.1
20260506173617 53 292 1.7 3.5 0.00 0.00 0.00 86 1020.1
20260506173603 53 292 1.7 3.5 0.00 0.00 0.00 86 1020.0
20260506173503 53 289 1.7 2.6 0.00 0.00 0.00 86 1020.1
20260506173303 53 292 1.7 2.6 0.00 0.00 0.00 86 1020.0
20260506173203 53 292 1.7 2.6 0.00 0.00 0.00 86 1020.2
20260506173103 53 290 1.7 2.6 0.00 0.00 0.00 86 1020.1
20260506173004 53 285 1.7 2.6 0.00 0.00 0.00 86 1020.1
20260506172919 53 283 1.7 2.6 0.00 0.00 0.00 86 1020.2
20260506172903 53 283 1.7 2.6 0.00 0.00 0.00 86 1020.2
20260506172803 53 280 1.7 2.6 0.00 0.00 0.00 86 1020.1
20260506172605 53 283 1.7 2.6 0.00 0.00 0.00 86 1020.2
20260506172503 53 284 1.7 2.6 0.00 0.00 0.00 86 1020.3
20260506172403 53 282 1.7 2.6 0.00 0.00 0.00 86 1020.2
20260506172306 53 281 1.7 2.6 0.00 0.00 0.00 86 1020.2
20260506172203 53 281 1.7 2.6 0.00 0.00 0.00 85 1020.0
20260506172103 53 282 1.7 2.6 0.00 0.00 0.00 85 1020.1
20260506172003 53 283 1.7 2.6 0.00 0.00 0.00 85 1020.1
20260506171903 53 285 0.9 2.6 0.00 0.00 0.00 85 1020.1
20260506171804 53 288 0.9 2.6 0.00 0.00 0.00 85 1020.0
20260506171703 53 289 0.9 2.6 0.00 0.00 0.00 85 1020.1
20260506171604 53 287 0.9 2.6 0.00 0.00 0.00 85 1020.2
20260506171504 53 284 0.9 2.6 0.00 0.00 0.00 85 1020.0
20260506171403 53 286 0.9 2.6 0.00 0.00 0.00 85 1020.0
20260506171303 53 289 0.9 2.6 0.00 0.00 0.00 85 1020.0
20260506171203 53 295 0.9 2.6 0.00 0.00 0.00 85 1020.1
20260506171104 53 298 0.9 2.6 0.00 0.00 0.00 85 1020.1
20260506171003 53 301 0.9 2.6 0.00 0.00 0.00 85 1020.0
20260506170903 53 298 0.9 2.6 0.00 0.00 0.00 85 1020.0
20260506170803 53 295 0.9 2.6 0.00 0.00 0.00 85 1020.0
20260506170703 53 292 0.9 2.6 0.00 0.00 0.00 85 1019.9
20260506170603 53 292 0.9 2.6 0.00 0.00 0.00 85 1019.9
20260506170503 53 294 0.9 2.6 0.00 0.00 0.00 85 1019.9
20260506170404 53 292 0.9 2.6 0.00 0.00 0.00 85 1020.0
20260506170303 53 289 0.9 2.6 0.00 0.00 0.00 85 1020.0
20260506170204 53 285 0.9 2.6 0.00 0.00 0.00 85 1020.0
20260506170103 53 282 0.9 2.6 0.00 0.00 0.00 85 1020.0
20260506170019 53 279 0.9 2.6 0.00 0.00 0.00 85 1019.9
20260506170003 53 277 0.9 2.6 0.00 0.00 0.00 85 1019.9
20260506165903 53 278 0.9 2.6 0.00 0.00 0.00 85 1019.9
20260506165703 53 281 0.9 2.6 0.00 0.00 0.00 85 1019.9
20260506165604 53 281 0.9 2.6 0.00 0.00 0.00 85 1019.9
20260506165503 53 281 0.9 2.6 0.00 0.00 0.00 85 1019.9
20260506165404 53 281 0.9 2.6 0.00 0.00 0.00 85 1019.7
20260506165305 53 282 0.9 2.6 0.00 0.00 0.00 85 1019.9
20260506165203 53 283 0.9 2.6 0.00 0.00 0.00 85 1019.8
20260506165103 53 286 0.9 2.6 0.00 0.00 0.00 84 1019.9
20260506165005 53 288 0.9 2.6 0.00 0.00 0.00 84 1019.8
20260506164903 53 288 0.9 2.6 0.00 0.00 0.00 84 1019.8
20260506164804 53 289 0.9 2.6 0.00 0.00 0.00 84 1019.7
20260506164703 53 288 0.9 2.6 0.00 0.00 0.00 84 1019.8
20260506164603 53 289 0.9 2.6 0.00 0.00 0.00 85 1019.7
20260506164503 53 291 0.9 2.6 0.00 0.00 0.00 85 1019.7
20260506164403 53 291 0.9 1.7 0.00 0.00 0.00 85 1019.7
20260506164303 53 291 0.9 1.7 0.00 0.00 0.00 84 1019.8
20260506164203 53 292 0.9 1.7 0.00 0.00 0.00 84 1019.8
20260506164003 53 294 0.9 1.7 0.00 0.00 0.00 84 1019.8
20260506163917 53 296 0.9 1.7 0.00 0.00 0.00 84 1019.8
20260506163903 53 296 0.9 1.7 0.00 0.00 0.00 84 1019.7
20260506163817 53 299 0.9 1.7 0.00 0.00 0.00 84 1019.8
20260506163803 53 300 0.9 1.7 0.00 0.00 0.00 84 1019.8
20260506163503 53 306 0.9 2.6 0.00 0.00 0.00 84 1019.7
20260506163404 53 309 0.9 2.6 0.00 0.00 0.00 84 1019.7
20260506163304 53 309 0.9 2.6 0.00 0.00 0.00 84 1019.7
20260506163203 53 309 0.9 2.6 0.00 0.00 0.00 84 1019.7
20260506163104 53 307 0.9 2.6 0.00 0.00 0.00 84 1019.6
20260506163003 53 305 0.9 2.6 0.00 0.00 0.00 84 1019.7
20260506162904 53 304 0.9 2.6 0.00 0.00 0.00 84 1019.8
20260506162803 53 302 0.9 2.6 0.00 0.00 0.00 84 1019.7
20260506162703 53 301 0.9 2.6 0.00 0.00 0.00 84 1019.7
20260506162603 53 302 0.9 2.6 0.00 0.00 0.00 84 1019.7
20260506162504 53 304 0.9 2.6 0.00 0.00 0.00 84 1019.7
20260506162403 53 303 0.9 1.7 0.00 0.00 0.00 84 1019.7
20260506162306 53 305 0.9 1.7 0.00 0.00 0.00 84 1019.7
20260506162203 53 307 0.9 1.7 0.00 0.00 0.00 84 1019.7
20260506162103 53 309 0.9 1.7 0.00 0.00 0.00 84 1019.7
20260506162004 53 312 0.9 1.7 0.00 0.00 0.00 84 1019.7
20260506161903 53 314 0.9 1.7 0.00 0.00 0.00 84 1019.7
20260506161804 53 313 0.9 1.7 0.00 0.00 0.00 84 1019.7
20260506161703 53 311 0.9 1.7 0.00 0.00 0.00 84 1019.7
20260506161604 53 310 0.9 1.7 0.00 0.00 0.00 84 1019.7
20260506161503 53 307 0.9 3.5 0.00 0.00 0.00 84 1019.7
20260506161404 53 309 0.9 3.5 0.00 0.00 0.00 84 1019.7
20260506161303 53 310 0.9 3.5 0.00 0.00 0.00 83 1019.7
20260506161204 53 312 0.9 3.5 0.00 0.00 0.00 83 1019.7
20260506161103 53 313 0.9 3.5 0.00 0.00 0.00 83 1019.7
20260506161003 53 314 0.9 3.5 0.00 0.00 0.00 83 1019.7
20260506160904 53 314 0.9 3.5 0.00 0.00 0.00 83 1019.7
20260506160803 53 318 0.9 3.5 0.00 0.00 0.00 83 1019.6
20260506160704 53 322 0.9 3.5 0.00 0.00 0.00 83 1019.6
20260506160619 53 323 0.9 3.5 0.00 0.00 0.00 83 1019.7
20260506160603 53 323 0.9 3.5 0.00 0.00 0.00 83 1019.6
20260506160504 53 325 0.9 2.6 0.00 0.00 0.00 83 1019.7
20260506160304 53 319 0.9 2.6 0.00 0.00 0.00 83 1019.7
20260506160203 53 314 0.9 3.5 0.00 0.00 0.00 83 1019.7
20260506160006 53 302 1.7 3.5 0.00 0.00 0.00 83 1019.6
20260506155904 53 296 1.7 3.5 0.00 0.00 0.00 83 1019.8
20260506155803 53 294 1.7 3.5 0.00 0.00 0.00 83 1019.6
20260506155704 53 290 1.7 3.5 0.00 0.00 0.00 83 1019.6
20260506155603 53 286 1.7 3.5 0.00 0.00 0.00 83 1019.6
20260506155517 53 283 1.7 3.5 0.00 0.00 0.00 83 1019.6
20260506155504 53 283 1.7 3.5 0.00 0.00 0.00 83 1019.6
20260506155217 53 278 1.7 3.5 0.00 0.00 0.00 82 1019.6
20260506155204 53 279 1.7 3.5 0.00 0.00 0.00 82 1019.6
20260506155104 53 279 1.7 3.5 0.00 0.00 0.00 82 1019.6
20260506154903 53 282 1.7 3.5 0.00 0.00 0.00 82 1019.6
20260506154803 53 283 1.7 3.5 0.00 0.00 0.00 82 1019.6
20260506154703 53 284 0.9 3.5 0.00 0.00 0.00 82 1019.6
20260506154603 53 286 0.9 3.5 0.00 0.00 0.00 82 1019.6
20260506154517 53 290 0.9 2.6 0.00 0.00 0.00 82 1019.6
20260506154503 53 290 0.9 2.6 0.00 0.00 0.00 82 1019.5
20260506154403 53 291 0.9 2.6 0.00 0.00 0.00 82 1019.6
20260506154318 53 294 0.9 2.6 0.00 0.00 0.00 82 1019.6
20260506154204 53 297 0.9 2.6 0.00 0.00 0.00 82 1019.6
20260506154004 53 306 0.9 2.6 0.00 0.00 0.00 81 1019.6
20260506153903 53 305 0.9 2.6 0.00 0.00 0.00 81 1019.6
20260506153803 53 304 0.9 2.6 0.00 0.00 0.00 81 1019.5
20260506153704 53 303 0.9 2.6 0.00 0.00 0.00 81 1019.5
20260506153503 53 300 0.9 2.6 0.00 0.00 0.00 81 1019.6
20260506153403 53 300 0.9 2.6 0.00 0.00 0.00 81 1019.5
20260506153304 53 299 0.9 2.6 0.00 0.00 0.00 81 1019.6
20260506153203 53 300 0.9 2.6 0.00 0.00 0.00 81 1019.6
20260506153117 53 299 0.9 2.6 0.00 0.00 0.00 81 1019.6
20260506153103 53 298 0.9 2.6 0.00 0.00 0.00 81 1019.6
20260506153003 53 294 0.9 1.7 0.00 0.00 0.00 81 1019.6
20260506152917 53 292 0.9 1.7 0.00 0.00 0.00 81 1019.6
20260506152804 53 288 0.9 1.7 0.00 0.00 0.00 81 1019.5
20260506152604 53 284 0.9 0.9 0.00 0.00 0.00 81 1019.5
20260506152503 53 285 0.9 1.7 0.00 0.00 0.00 81 1019.5
20260506152404 53 287 0.9 1.7 0.00 0.00 0.00 81 1019.6
20260506152305 53 288 0.9 3.5 0.00 0.00 0.00 81 1019.5
20260506152205 53 287 0.9 3.5 0.00 0.00 0.00 81 1019.5
20260506152103 53 285 0.9 3.5 0.00 0.00 0.00 81 1019.6
20260506151903 53 283 0.9 3.5 0.00 0.00 0.00 81 1019.4
20260506151805 53 282 0.9 3.5 0.00 0.00 0.00 81 1019.6
20260506151704 53 281 0.9 3.5 0.00 0.00 0.00 81 1019.5
20260506151603 53 280 0.9 3.5 0.00 0.00 0.00 81 1019.5
20260506151504 53 278 0.9 3.5 0.00 0.00 0.00 81 1019.5
20260506151403 53 276 0.9 3.5 0.00 0.00 0.00 81 1019.4
20260506151305 53 274 0.9 1.7 0.00 0.00 0.00 81 1019.5
20260506151204 53 274 0.9 1.7 0.00 0.00 0.00 81 1019.5
20260506151103 53 275 0.9 2.6 0.00 0.00 0.00 81 1019.5
20260506151003 53 275 0.9 2.6 0.00 0.00 0.00 81 1019.4
20260506150903 53 275 0.9 2.6 0.00 0.00 0.00 81 1019.3
20260506150803 53 276 0.9 2.6 0.00 0.00 0.00 81 1019.4
20260506150703 53 276 0.9 2.6 0.00 0.00 0.00 81 1019.4
20260506150603 53 277 0.9 2.6 0.00 0.00 0.00 81 1019.3
20260506150503 53 279 0.9 2.6 0.00 0.00 0.00 81 1019.3
20260506150403 53 280 0.9 2.6 0.00 0.00 0.00 81 1019.4
20260506150305 53 281 0.9 2.6 0.00 0.00 0.00 81 1019.3
20260506150005 53 283 0.9 2.6 0.00 0.00 0.00 81 1019.4
20260506145903 53 285 0.9 2.6 0.00 0.00 0.00 81 1019.3
20260506145604 53 287 0.9 1.7 0.00 0.00 0.00 81 1019.3
20260506145503 53 285 0.9 1.7 0.00 0.00 0.00 81 1019.2
20260506145404 53 283 0.9 2.6 0.00 0.00 0.00 81 1019.3
20260506145305 53 284 0.9 2.6 0.00 0.00 0.00 81 1019.2
20260506145204 53 283 0.9 2.6 0.00 0.00 0.00 81 1019.4
20260506145103 53 282 0.9 2.6 0.00 0.00 0.00 81 1019.3
20260506145004 53 282 1.7 3.5 0.00 0.00 0.00 81 1019.2
20260506144903 53 280 1.7 3.5 0.00 0.00 0.00 81 1019.3
20260506144803 53 281 1.7 3.5 0.00 0.00 0.00 81 1019.3
20260506144703 53 282 1.7 3.5 0.00 0.00 0.00 81 1019.2
20260506144605 53 282 1.7 3.5 0.00 0.00 0.00 81 1019.3
20260506144503 53 283 1.7 3.5 0.00 0.00 0.00 81 1019.3
20260506144403 53 284 1.7 3.5 0.00 0.00 0.00 81 1019.2
20260506144318 53 284 1.7 3.5 0.00 0.00 0.00 81 1019.2
20260506144303 53 283 1.7 3.5 0.00 0.00 0.00 81 1019.2
20260506144203 53 283 1.7 3.5 0.00 0.00 0.00 81 1019.1
20260506144003 53 283 0.9 2.6 0.00 0.00 0.00 81 1019.1
20260506143904 53 283 0.9 2.6 0.00 0.00 0.00 81 1019.1
20260506143803 53 281 0.9 2.6 0.00 0.00 0.00 81 1019.1
20260506143706 53 279 0.9 2.6 0.00 0.00 0.00 81 1019.0
20260506143603 53 278 0.9 2.6 0.00 0.00 0.00 81 1019.0
20260506143503 53 276 0.9 2.6 0.00 0.00 0.00 81 1019.0
20260506143404 53 273 0.9 2.6 0.00 0.00 0.00 81 1019.0
20260506143303 53 272 0.9 2.6 0.00 0.00 0.00 81 1018.9
20260506143203 53 270 0.9 2.6 0.00 0.00 0.00 81 1019.0
20260506143103 53 269 0.9 2.6 0.00 0.00 0.00 81 1019.0
20260506143003 53 267 0.9 2.6 0.00 0.00 0.00 81 1018.9
20260506142904 53 265 0.9 2.6 0.00 0.00 0.00 81 1019.0
20260506142803 53 261 0.9 2.6 0.00 0.00 0.00 81 1019.0
20260506142719 53 254 0.9 1.7 0.00 0.00 0.00 81 1018.9
20260506142703 53 253 0.9 1.7 0.00 0.00 0.00 81 1018.9
20260506142604 53 249 0.0 1.7 0.00 0.00 0.00 81 1019.0
20260506142403 53 243 0.0 1.7 0.00 0.00 0.00 81 1018.9
20260506142306 53 236 0.0 1.7 0.00 0.00 0.00 81 1018.9
20260506142203 53 234 0.0 1.7 0.00 0.00 0.00 81 1018.8
20260506142103 53 238 0.0 1.7 0.00 0.00 0.00 81 1018.8
20260506142004 53 245 0.0 1.7 0.00 0.00 0.00 81 1018.8
20260506141903 53 245 0.0 1.7 0.00 0.00 0.00 81 1018.9
20260506141804 53 243 0.0 1.7 0.00 0.00 0.00 81 1018.9
20260506141705 53 240 0.0 1.7 0.00 0.00 0.00 81 1018.9
20260506141604 53 244 0.0 1.7 0.00 0.00 0.00 81 1018.9
20260506141503 53 241 0.0 0.9 0.00 0.00 0.00 81 1018.9
20260506141403 53 243 0.0 0.9 0.00 0.00 0.00 81 1018.9
20260506141303 53 244 0.0 0.9 0.00 0.00 0.00 81 1018.8
20260506141203 53 244 0.0 0.9 0.00 0.00 0.00 81 1018.8
20260506141104 53 244 0.0 0.9 0.00 0.00 0.00 81 1018.8
20260506141004 53 241 0.0 0.9 0.00 0.00 0.00 81 1018.8
20260506140803 53 246 0.0 0.9 0.00 0.00 0.00 81 1018.8
20260506140703 53 251 0.0 0.9 0.00 0.00 0.00 81 1018.8
20260506140603 53 252 0.0 1.7 0.00 0.00 0.00 81 1018.9
20260506140503 53 255 0.0 1.7 0.00 0.00 0.00 81 1018.9
20260506140403 53 257 0.0 1.7 0.00 0.00 0.00 81 1019.0
20260506140303 53 259 0.0 1.7 0.00 0.00 0.00 81 1018.8
20260506140203 53 260 0.0 1.7 0.00 0.00 0.00 81 1018.8
20260506140007 53 266 0.0 1.7 0.00 0.00 0.00 81 1018.8
20260506135903 53 269 0.9 1.7 0.00 0.00 0.00 81 1018.8
20260506135803 53 272 0.9 1.7 0.00 0.00 0.00 81 1018.9
20260506135717 53 273 0.9 1.7 0.00 0.00 0.00 81 1018.8
20260506135703 53 274 0.9 1.7 0.00 0.00 0.00 81 1018.8
20260506135604 53 278 0.9 1.7 0.00 0.00 0.00 81 1018.7
20260506135403 53 280 0.9 3.5 0.00 0.00 0.00 81 1018.8
20260506135305 53 279 0.9 3.5 0.00 0.00 0.00 81 1018.8
20260506135203 53 278 0.9 3.5 0.00 0.00 0.00 81 1018.7
20260506135105 53 278 0.9 3.5 0.00 0.00 0.00 81 1018.9
20260506135003 53 277 0.9 3.5 0.00 0.00 0.00 81 1018.8
20260506134903 53 277 0.9 3.5 0.00 0.00 0.00 81 1018.8
20260506134803 53 277 0.9 3.5 0.00 0.00 0.00 81 1018.8
20260506134703 53 276 0.9 3.5 0.00 0.00 0.00 81 1018.8
20260506134603 53 276 0.9 3.5 0.00 0.00 0.00 81 1018.8
20260506134503 53 275 0.9 2.6 0.00 0.00 0.00 81 1018.8
20260506134403 53 274 0.9 2.6 0.00 0.00 0.00 81 1018.7
20260506134303 53 275 0.9 2.6 0.00 0.00 0.00 81 1018.7
20260506134203 53 275 0.9 1.7 0.00 0.00 0.00 81 1018.6
20260506134103 53 276 0.9 1.7 0.00 0.00 0.00 81 1018.6
20260506134003 53 276 0.9 1.7 0.00 0.00 0.00 81 1018.7
20260506133803 53 277 0.9 1.7 0.00 0.00 0.00 81 1018.7
20260506133703 53 278 0.9 1.7 0.00 0.00 0.00 81 1018.6
20260506133603 53 279 0.9 1.7 0.00 0.00 0.00 81 1018.6
20260506133303 53 279 0.9 1.7 0.00 0.00 0.00 81 1018.6
20260506133203 53 279 0.9 1.7 0.00 0.00 0.00 81 1018.6
20260506133103 53 279 0.9 1.7 0.00 0.00 0.00 81 1018.5
20260506133003 53 279 0.9 1.7 0.00 0.00 0.00 81 1018.6
20260506132903 53 279 0.9 1.7 0.00 0.00 0.00 81 1018.6
20260506132804 53 279 0.9 1.7 0.00 0.00 0.00 81 1018.5
20260506132703 53 279 0.9 1.7 0.00 0.00 0.00 81 1018.5
20260506132618 53 279 0.9 1.7 0.00 0.00 0.00 81 1018.4
20260506132603 53 279 0.0 1.7 0.00 0.00 0.00 81 1018.4
20260506132306 53 279 0.0 1.7 0.00 0.00 0.00 81 1018.4
20260506132203 53 279 0.0 1.7 0.00 0.00 0.00 81 1018.5
20260506132103 53 279 0.0 1.7 0.00 0.00 0.00 81 1018.4
20260506132003 53 281 0.0 2.6 0.00 0.00 0.00 81 1018.4
20260506131904 53 283 0.0 2.6 0.00 0.00 0.00 81 1018.2
20260506131803 53 284 0.9 2.6 0.00 0.00 0.00 81 1018.3
20260506131703 53 285 0.9 2.6 0.00 0.00 0.00 81 1018.3
20260506131603 53 286 0.9 2.6 0.00 0.00 0.00 81 1018.4
20260506131503 53 285 0.9 2.6 0.00 0.00 0.00 81 1018.5
20260506131403 53 286 0.9 2.6 0.00 0.00 0.00 81 1018.4
20260506131303 53 286 0.9 2.6 0.00 0.00 0.00 81 1018.3
20260506131203 53 287 0.9 2.6 0.00 0.00 0.00 81 1018.5
20260506131003 53 288 0.0 1.7 0.00 0.00 0.00 81 1018.4
20260506130903 53 288 0.0 1.7 0.00 0.00 0.00 81 1018.5
20260506130803 53 287 0.0 1.7 0.00 0.00 0.00 81 1018.4
20260506130703 53 285 0.0 1.7 0.00 0.00 0.00 81 1018.3
20260506130617 53 280 0.0 1.7 0.00 0.00 0.00 81 1018.3
20260506130604 53 275 0.0 1.7 0.00 0.00 0.00 81 1018.2
20260506130503 53 0 0.0 0.0 0.00 0.00 0.00 81 1018.2
20260506130303 53 0 0.0 0.0 0.00 0.00 0.00 81 1018.2
20260506130203 53 0 0.0 0.0 0.00 0.00 0.00 81 1018.2
20260506130103 53 0 0.0 0.0 0.00 0.00 0.00 81 1018.2
20260506130004 53 0 0.0 0.0 0.00 0.00 0.00 81 1018.2
20260506125903 53 0 0.0 0.0 0.00 0.00 0.00 81 1018.2
20260506125803 53 0 0.0 0.0 0.00 0.00 0.00 81 1018.1
20260506125703 53 0 0.0 0.0 0.00 0.00 0.00 81 1018.1
20260506125603 53 0 0.0 0.0 0.00 0.00 0.00 81 1018.1
20260506125503 53 0 0.0 0.0 0.00 0.00 0.00 81 1018.1
20260506125403 53 0 0.0 0.0 0.00 0.00 0.00 81 1018.2
20260506125305 53 0 0.0 0.0 0.00 0.00 0.00 81 1018.1
20260506125203 53 268 0.0 0.9 0.00 0.00 0.00 81 1018.2
20260506125103 53 268 0.0 0.9 0.00 0.00 0.00 81 1018.2
20260506125003 53 268 0.0 0.9 0.00 0.00 0.00 81 1018.2
20260506124903 53 268 0.0 0.9 0.00 0.00 0.00 81 1018.2
20260506124803 53 268 0.0 0.9 0.00 0.00 0.00 81 1018.2
20260506124716 53 268 0.0 0.9 0.00 0.00 0.00 81 1018.2
20260506124603 53 268 0.0 0.9 0.00 0.00 0.00 81 1018.2
20260506124403 53 268 0.0 0.9 0.00 0.00 0.00 81 1018.1
20260506124303 53 268 0.0 0.9 0.00 0.00 0.00 81 1018.1
20260506124203 53 268 0.0 0.9 0.00 0.00 0.00 81 1018.1
20260506124103 53 268 0.0 0.9 0.00 0.00 0.00 81 1018.1
20260506124003 53 268 0.0 0.9 0.00 0.00 0.00 81 1018.2
20260506123903 53 268 0.0 0.9 0.00 0.00 0.00 81 1018.1
20260506123803 53 268 0.0 1.7 0.00 0.00 0.00 81 1018.2
20260506123703 53 277 0.0 2.6 0.00 0.00 0.00 81 1018.3
20260506123617 53 280 0.0 2.6 0.00 0.00 0.00 81 1018.3
20260506123603 53 281 0.9 2.6 0.00 0.00 0.00 81 1018.3
20260506123503 53 284 0.9 2.6 0.00 0.00 0.00 81 1018.3
20260506123303 53 288 0.9 2.6 0.00 0.00 0.00 81 1018.4
20260506123204 53 289 0.9 2.6 0.00 0.00 0.00 81 1018.3
20260506123103 53 289 0.9 2.6 0.00 0.00 0.00 81 1018.3
20260506123004 53 291 0.9 2.6 0.00 0.00 0.00 81 1018.3
20260506122905 53 293 0.9 2.6 0.00 0.00 0.00 81 1018.4
20260506122803 53 299 0.0 2.6 0.00 0.00 0.00 81 1018.4
20260506122703 53 300 0.0 1.7 0.00 0.00 0.00 81 1018.4
20260506122603 53 298 0.0 1.7 0.00 0.00 0.00 81 1018.3
20260506122503 53 296 0.0 1.7 0.00 0.00 0.00 81 1018.3
20260506122305 53 294 0.0 1.7 0.00 0.00 0.00 81 1018.3
20260506122203 53 293 0.0 1.7 0.00 0.00 0.00 81 1018.3
20260506122003 53 292 0.0 0.9 0.00 0.00 0.00 81 1018.3
20260506121903 53 292 0.0 0.9 0.00 0.00 0.00 81 1018.4
20260506121803 53 292 0.0 0.9 0.00 0.00 0.00 81 1018.3
20260506121703 53 292 0.0 0.9 0.00 0.00 0.00 81 1018.2
20260506121603 53 292 0.0 0.9 0.00 0.00 0.00 81 1018.2
20260506121503 53 292 0.0 0.9 0.00 0.00 0.00 81 1018.1
20260506121403 53 292 0.0 0.9 0.00 0.00 0.00 81 1018.1
20260506121303 53 291 0.0 0.9 0.00 0.00 0.00 81 1018.2
20260506121203 53 289 0.0 0.9 0.00 0.00 0.00 81 1018.3
20260506121103 53 289 0.0 0.9 0.00 0.00 0.00 81 1018.2
20260506121003 53 288 0.0 0.9 0.00 0.00 0.00 81 1018.3
20260506120903 53 287 0.0 0.9 0.00 0.00 0.00 81 1018.3
20260506120818 53 289 0.0 1.7 0.00 0.00 0.00 81 1018.3
20260506120803 53 291 0.0 1.7 0.00 0.00 0.00 81 1018.3
20260506120703 53 298 0.0 1.7 0.00 0.00 0.00 81 1018.3
20260506120517 53 306 0.0 1.7 0.00 0.00 0.00 81 1018.3
20260506120503 53 307 0.9 2.6 0.00 0.00 0.00 81 1018.3
20260506120405 53 310 0.9 2.6 0.00 0.00 0.00 81 1018.3
20260506120203 53 312 0.9 2.6 0.00 0.00 0.00 81 1018.2
20260506120104 53 311 0.9 2.6 0.00 0.00 0.00 81 1018.3
20260506120006 53 310 0.9 2.6 0.00 0.00 0.00 81 1018.2
20260506115903 53 310 0.9 2.6 0.00 0.00 0.00 81 1018.3
20260506115818 53 314 0.9 2.6 0.00 0.00 0.00 81 1018.2
20260506115803 53 313 0.9 2.6 0.00 0.00 0.00 81 1018.2
20260506115704 53 310 0.9 2.6 0.00 0.00 0.00 81 1018.3
20260506115503 53 301 0.9 2.6 0.00 0.00 0.00 81 1018.3
20260506115403 53 299 0.9 2.6 0.00 0.00 0.00 81 1018.3
20260506115307 53 299 0.9 2.6 0.00 0.00 0.00 81 1018.3
20260506115203 53 300 0.9 2.6 0.00 0.00 0.00 81 1018.3
20260506115103 53 302 0.9 2.6 0.00 0.00 0.00 81 1018.4
20260506115003 53 302 0.9 2.6 0.00 0.00 0.00 81 1018.2
20260506114917 53 303 0.9 2.6 0.00 0.00 0.00 81 1018.3
20260506114903 53 301 0.9 2.6 0.00 0.00 0.00 81 1018.3
20260506114803 53 295 0.9 2.6 0.00 0.00 0.00 81 1018.3
20260506114604 53 291 0.9 2.6 0.00 0.00 0.00 81 1018.2
20260506114503 53 292 0.9 1.7 0.00 0.00 0.00 81 1018.1
20260506114403 53 290 0.9 2.6 0.00 0.00 0.00 81 1018.1
20260506114303 53 289 0.9 2.6 0.00 0.00 0.00 81 1018.1
20260506114203 53 288 0.9 2.6 0.00 0.00 0.00 81 1018.0
20260506114103 53 286 0.9 2.6 0.00 0.00 0.00 81 1018.0
20260506114017 53 286 0.9 2.6 0.00 0.00 0.00 81 1018.0
20260506114003 53 287 0.9 2.6 0.00 0.00 0.00 81 1018.0
20260506113903 53 288 0.9 2.6 0.00 0.00 0.00 81 1018.0
20260506113703 53 294 0.9 2.6 0.00 0.00 0.00 81 1018.0
20260506113603 53 298 0.9 2.6 0.00 0.00 0.00 81 1018.0
20260506113503 53 299 0.9 2.6 0.00 0.00 0.00 81 1018.0
20260506113403 53 299 0.9 1.7 0.00 0.00 0.00 81 1017.9
20260506113303 53 297 0.9 1.7 0.00 0.00 0.00 81 1017.9
20260506113203 53 298 0.9 1.7 0.00 0.00 0.00 81 1017.9
20260506113103 53 300 0.9 1.7 0.00 0.00 0.00 81 1018.0
20260506113003 53 293 0.9 1.7 0.00 0.00 0.00 81 1017.9
20260506112903 53 292 0.9 1.7 0.00 0.00 0.00 81 1017.9
20260506112803 53 289 0.9 1.7 0.00 0.00 0.00 81 1017.9
20260506112703 53 289 0.9 2.6 0.00 0.00 0.00 81 1017.9
20260506112603 53 289 0.9 2.6 0.00 0.00 0.00 81 1017.9
20260506112503 53 289 1.7 2.6 0.00 0.00 0.00 81 1017.9
20260506112403 53 288 1.7 2.6 0.00 0.00 0.00 81 1017.9
20260506112305 53 288 1.7 2.6 0.00 0.00 0.00 81 1018.0
20260506112203 53 286 1.7 2.6 0.00 0.00 0.00 82 1017.9
20260506112103 53 284 1.7 2.6 0.00 0.00 0.00 81 1018.0
20260506112004 53 285 1.7 2.6 0.00 0.00 0.00 81 1018.1
20260506111903 53 284 1.7 2.6 0.00 0.00 0.00 81 1018.0
20260506111718 53 287 1.7 2.6 0.00 0.00 0.00 82 1018.1
20260506111703 53 288 0.9 2.6 0.00 0.00 0.00 82 1018.1
20260506111603 53 289 0.9 2.6 0.00 0.00 0.00 82 1018.1
20260506111403 53 290 0.9 2.6 0.00 0.00 0.00 82 1018.1
20260506111303 53 289 0.9 2.6 0.00 0.00 0.00 82 1018.1
20260506111018 53 290 0.9 2.6 0.00 0.00 0.00 82 1018.0
20260506111003 53 291 0.9 2.6 0.00 0.00 0.00 82 1018.0
20260506110905 53 293 0.9 2.6 0.00 0.00 0.00 82 1018.0
20260506110703 53 290 0.9 2.6 0.00 0.00 0.00 82 1018.0
20260506110603 53 290 0.9 2.6 0.00 0.00 0.00 82 1018.0
20260506110503 53 290 1.7 2.6 0.00 0.00 0.00 82 1018.1
20260506110403 53 291 1.7 2.6 0.00 0.00 0.00 82 1018.1
20260506110303 53 291 1.7 2.6 0.00 0.00 0.00 82 1018.1
20260506110203 53 290 1.7 3.5 0.00 0.00 0.00 82 1018.0
20260506110018 53 288 1.7 3.5 0.00 0.00 0.00 82 1018.1
20260506110004 53 287 1.7 3.5 0.00 0.00 0.00 82 1018.1
20260506105904 53 287 1.7 3.5 0.00 0.00 0.00 82 1018.1
20260506105603 53 283 1.7 3.5 0.00 0.00 0.00 82 1018.0
20260506105503 53 281 1.7 3.5 0.00 0.00 0.00 82 1018.0
20260506105305 53 281 1.7 3.5 0.00 0.00 0.00 82 1018.0
20260506105203 53 282 1.7 3.5 0.00 0.00 0.00 82 1018.0
20260506105103 53 283 1.7 3.5 0.00 0.00 0.00 82 1018.0
20260506105003 53 284 1.7 3.5 0.00 0.00 0.00 82 1018.0
20260506104903 53 286 1.7 3.5 0.00 0.00 0.00 82 1018.0
20260506104703 53 290 1.7 2.6 0.00 0.00 0.00 82 1018.1
20260506104603 53 293 1.7 2.6 0.00 0.00 0.00 82 1018.0
20260506104503 53 297 0.9 2.6 0.00 0.00 0.00 82 1018.0
20260506104403 53 298 0.9 2.6 0.00 0.00 0.00 83 1018.0
20260506104318 53 300 0.9 2.6 0.00 0.00 0.00 83 1018.0
20260506104303 53 301 0.9 2.6 0.00 0.00 0.00 83 1018.0
20260506104219 53 303 0.9 2.6 0.00 0.00 0.00 82 1018.0
20260506104203 53 304 0.9 2.6 0.00 0.00 0.00 83 1018.0
20260506103903 53 308 0.9 1.7 0.00 0.00 0.00 83 1017.9
20260506103803 53 308 0.9 1.7 0.00 0.00 0.00 83 1018.0
20260506103703 53 307 0.9 1.7 0.00 0.00 0.00 83 1018.0
20260506103603 53 305 0.9 1.7 0.00 0.00 0.00 83 1018.0
20260506103503 53 304 0.9 1.7 0.00 0.00 0.00 83 1018.0
20260506103404 53 304 0.9 1.7 0.00 0.00 0.00 83 1018.0
20260506103303 53 304 0.9 1.7 0.00 0.00 0.00 83 1017.9
20260506103203 53 304 0.9 1.7 0.00 0.00 0.00 83 1017.9
20260506103103 53 304 0.0 1.7 0.00 0.00 0.00 83 1017.9
20260506102903 53 303 0.0 1.7 0.00 0.00 0.00 83 1017.9
20260506102803 53 303 0.0 1.7 0.00 0.00 0.00 83 1017.9
20260506102703 53 302 0.0 1.7 0.00 0.00 0.00 83 1017.9
20260506102603 53 301 0.0 1.7 0.00 0.00 0.00 83 1017.9
20260506102503 53 299 0.0 1.7 0.00 0.00 0.00 83 1017.8
20260506102403 53 297 0.0 1.7 0.00 0.00 0.00 83 1017.8
20260506102305 53 296 0.0 1.7 0.00 0.00 0.00 83 1017.8
20260506102204 53 293 0.0 1.7 0.00 0.00 0.00 83 1017.8
20260506102003 53 291 0.0 1.7 0.00 0.00 0.00 83 1017.8
20260506101903 53 290 0.0 1.7 0.00 0.00 0.00 83 1017.8
20260506101803 53 290 0.0 1.7 0.00 0.00 0.00 83 1017.8
20260506101703 53 290 0.9 1.7 0.00 0.00 0.00 83 1017.8
20260506101603 53 289 0.9 1.7 0.00 0.00 0.00 83 1017.8
20260506101503 53 288 0.0 1.7 0.00 0.00 0.00 83 1017.8
20260506101403 53 288 0.0 1.7 0.00 0.00 0.00 83 1017.8
20260506101303 53 287 0.0 1.7 0.00 0.00 0.00 83 1017.8
20260506101203 53 287 0.0 1.7 0.00 0.00 0.00 83 1017.7
20260506101103 53 285 0.0 1.7 0.00 0.00 0.00 83 1017.7
20260506101003 53 284 0.0 1.7 0.00 0.00 0.00 83 1017.7
20260506100903 53 284 0.0 0.9 0.00 0.00 0.00 83 1017.7
20260506100803 53 285 0.0 1.7 0.00 0.00 0.00 83 1017.7
20260506100703 53 289 0.0 1.7 0.00 0.00 0.00 83 1017.7
20260506100603 53 290 0.0 1.7 0.00 0.00 0.00 83 1017.6
20260506100503 53 290 0.0 1.7 0.00 0.00 0.00 83 1017.6
20260506100403 53 299 0.0 1.7 0.00 0.00 0.00 83 1017.7
20260506100303 53 305 0.0 1.7 0.00 0.00 0.00 83 1017.7
20260506100203 53 303 0.0 1.7 0.00 0.00 0.00 83 1017.6
20260506100103 53 302 0.0 1.7 0.00 0.00 0.00 83 1017.6
20260506100005 53 302 0.9 1.7 0.00 0.00 0.00 83 1017.5
20260506095918 53 300 0.9 1.7 0.00 0.00 0.00 83 1017.6
20260506095903 53 300 0.0 1.7 0.00 0.00 0.00 83 1017.6
20260506095803 53 302 0.0 1.7 0.00 0.00 0.00 83 1017.7
20260506095618 53 301 0.0 1.7 0.00 0.00 0.00 83 1017.7
20260506095603 53 300 0.0 1.7 0.00 0.00 0.00 83 1017.7
20260506095503 53 300 0.0 1.7 0.00 0.00 0.00 83 1017.6
20260506095305 53 288 0.0 1.7 0.00 0.00 0.00 83 1017.7
20260506095203 53 288 0.0 1.7 0.00 0.00 0.00 83 1017.6
20260506095104 53 288 0.0 1.7 0.00 0.00 0.00 83 1017.7
20260506095003 53 288 0.0 1.7 0.00 0.00 0.00 83 1017.6
20260506094903 53 288 0.0 1.7 0.00 0.00 0.00 83 1017.7
20260506094703 53 288 0.9 1.7 0.00 0.00 0.00 83 1017.7
20260506094603 53 288 0.9 1.7 0.00 0.00 0.00 83 1017.8
20260506094503 53 288 0.9 1.7 0.00 0.00 0.00 83 1017.6
20260506094403 53 288 0.9 1.7 0.00 0.00 0.00 83 1017.8
20260506094304 53 288 0.9 1.7 0.00 0.00 0.00 83 1017.8
20260506094218 53 288 0.9 1.7 0.00 0.00 0.00 83 1017.8
20260506094103 53 288 0.9 1.7 0.00 0.00 0.00 83 1017.8
20260506093903 53 288 0.0 1.7 0.00 0.00 0.00 83 1017.9
20260506093803 53 288 0.0 1.7 0.00 0.00 0.00 83 1017.8
20260506093703 54 288 0.0 1.7 0.00 0.00 0.00 83 1017.8
20260506093604 54 287 0.0 1.7 0.00 0.00 0.00 83 1017.8
20260506093503 54 287 0.0 1.7 0.00 0.00 0.00 83 1017.8
20260506093403 54 289 0.0 1.7 0.00 0.00 0.00 83 1017.8
20260506093303 54 291 0.9 1.7 0.00 0.00 0.00 83 1017.8
20260506093218 54 292 0.9 1.7 0.00 0.00 0.00 83 1017.8
20260506093203 54 292 0.9 1.7 0.00 0.00 0.00 83 1017.7
20260506093103 54 293 0.9 1.7 0.00 0.00 0.00 83 1017.8
20260506092903 54 295 0.9 2.6 0.00 0.00 0.00 83 1017.7
20260506092803 54 298 0.9 3.5 0.00 0.00 0.00 83 1017.8
20260506092703 54 300 0.9 3.5 0.00 0.00 0.00 83 1017.8
20260506092603 54 303 0.9 3.5 0.00 0.00 0.00 83 1017.7
20260506092503 54 304 0.9 3.5 0.00 0.00 0.00 83 1017.7
20260506092403 54 302 0.9 3.5 0.00 0.00 0.00 83 1017.7
20260506092305 54 300 1.7 3.5 0.00 0.00 0.00 83 1017.7
20260506092203 54 299 1.7 3.5 0.00 0.00 0.00 83 1017.8
20260506092103 54 298 1.7 3.5 0.00 0.00 0.00 83 1017.7
20260506091903 54 298 0.9 3.5 0.00 0.00 0.00 83 1017.7
20260506091803 54 296 0.9 2.6 0.00 0.00 0.00 83 1017.7
20260506091604 54 293 1.7 2.6 0.00 0.00 0.00 83 1017.7
20260506091503 54 293 1.7 2.6 0.00 0.00 0.00 83 1017.7
20260506091403 54 296 1.7 2.6 0.00 0.00 0.00 83 1017.7
20260506091203 54 295 1.7 2.6 0.00 0.00 0.00 83 1017.7
20260506091103 54 293 1.7 2.6 0.00 0.00 0.00 83 1017.7
20260506091003 54 290 1.7 2.6 0.00 0.00 0.00 83 1017.5
20260506090903 54 287 1.7 5.2 0.00 0.00 0.00 83 1017.5
20260506090803 54 287 1.7 5.2 0.00 0.00 0.00 83 1017.5
20260506090703 54 288 1.7 5.2 0.00 0.00 0.00 83 1017.7
20260506090603 54 288 0.9 5.2 0.00 0.00 0.00 83 1017.6
20260506090503 54 288 0.9 5.2 0.00 0.00 0.00 83 1017.6
20260506090403 54 286 0.9 5.2 0.00 0.00 0.00 83 1017.6
20260506090303 54 287 0.9 5.2 0.00 0.00 0.00 83 1017.5
20260506090203 54 290 0.9 5.2 0.00 0.00 0.00 83 1017.6
20260506090004 54 304 0.9 5.2 0.00 0.00 0.00 83 1017.5
20260506085903 54 314 0.9 2.6 0.00 0.00 0.00 83 1017.6
20260506085803 54 311 0.9 2.6 0.00 0.00 0.00 83 1017.6
20260506085703 54 313 0.9 2.6 0.00 0.00 0.00 83 1017.6
20260506085604 54 314 0.9 2.6 0.00 0.00 0.00 83 1017.6
20260506085518 54 314 0.9 2.6 0.00 0.00 0.00 83 1017.6
20260506085503 54 313 0.9 2.6 0.00 0.00 0.00 83 1017.6
20260506085403 54 310 0.9 2.6 0.00 0.00 0.00 83 1017.5
20260506085203 54 304 0.9 2.6 0.00 0.00 0.00 83 1017.4
20260506085103 54 302 0.9 2.6 0.00 0.00 0.00 83 1017.5
20260506085004 54 299 0.9 2.6 0.00 0.00 0.00 83 1017.4
20260506084918 54 297 0.9 2.6 0.00 0.00 0.00 83 1017.4
20260506084903 54 294 0.9 2.6 0.00 0.00 0.00 83 1017.4
20260506084818 54 293 0.9 2.6 0.00 0.00 0.00 83 1017.4
20260506084803 54 292 0.9 2.6 0.00 0.00 0.00 83 1017.4
20260506084504 54 282 0.9 2.6 0.00 0.00 0.00 83 1017.4
20260506084417 54 281 0.9 2.6 0.00 0.00 0.00 83 1017.4
20260506084403 54 283 0.9 1.7 0.00 0.00 0.00 83 1017.4
20260506084303 54 284 0.9 1.7 0.00 0.00 0.00 83 1017.4
20260506084103 54 290 0.9 1.7 0.00 0.00 0.00 83 1017.4
20260506084003 54 294 0.9 1.7 0.00 0.00 0.00 83 1017.4
20260506083904 54 295 0.9 1.7 0.00 0.00 0.00 83 1017.3
20260506083803 54 294 0.9 1.7 0.00 0.00 0.00 83 1017.3
20260506083703 54 294 0.9 1.7 0.00 0.00 0.00 83 1017.3
20260506083603 54 295 0.9 2.6 0.00 0.00 0.00 83 1017.3
20260506083503 54 290 0.9 2.6 0.00 0.00 0.00 83 1017.3
20260506083403 54 286 0.9 2.6 0.00 0.00 0.00 83 1017.3
20260506083303 54 287 0.9 2.6 0.00 0.00 0.00 83 1017.4
20260506083203 54 291 0.9 2.6 0.00 0.00 0.00 83 1017.3
20260506083103 54 290 0.9 2.6 0.00 0.00 0.00 83 1017.4
20260506083003 54 289 0.9 2.6 0.00 0.00 0.00 83 1017.3
20260506082903 54 291 0.9 2.6 0.00 0.00 0.00 83 1017.2
20260506082803 54 293 0.9 2.6 0.00 0.00 0.00 83 1017.3
20260506082703 54 295 0.9 2.6 0.00 0.00 0.00 83 1017.2
20260506082603 54 299 0.9 2.6 0.00 0.00 0.00 83 1017.3
20260506082503 54 307 0.9 2.6 0.00 0.00 0.00 83 1017.3
20260506082403 54 322 0.0 1.7 0.00 0.00 0.00 83 1017.3
20260506082305 54 320 0.0 1.7 0.00 0.00 0.00 83 1017.3
20260506082203 54 314 0.0 1.7 0.00 0.00 0.00 83 1017.3
20260506082103 54 315 0.0 1.7 0.00 0.00 0.00 83 1017.3
20260506082003 54 320 0.0 1.7 0.00 0.00 0.00 83 1017.3
20260506081904 54 320 0.0 0.9 0.00 0.00 0.00 83 1017.4
20260506081803 54 320 0.0 0.9 0.00 0.00 0.00 83 1017.4
20260506081704 54 320 0.0 0.9 0.00 0.00 0.00 83 1017.3
20260506081603 54 320 0.0 0.9 0.00 0.00 0.00 83 1017.3
20260506081504 54 320 0.0 0.9 0.00 0.00 0.00 83 1017.4
20260506081403 54 320 0.0 0.9 0.00 0.00 0.00 83 1017.3
20260506081304 54 320 0.0 0.9 0.00 0.00 0.00 83 1017.4
20260506081106 54 320 0.0 0.9 0.00 0.00 0.00 82 1017.2
20260506081003 54 320 0.0 0.9 0.00 0.00 0.00 82 1017.3
20260506080904 54 320 0.0 1.7 0.00 0.00 0.00 82 1017.3
20260506080703 54 320 0.0 1.7 0.00 0.00 0.00 82 1017.3
20260506080603 54 320 0.0 1.7 0.00 0.00 0.00 82 1017.4
20260506080503 54 319 0.9 1.7 0.00 0.00 0.00 82 1017.4
20260506080403 54 320 0.9 1.7 0.00 0.00 0.00 82 1017.3
20260506080303 54 316 0.9 1.7 0.00 0.00 0.00 82 1017.3
20260506080203 54 314 0.9 1.7 0.00 0.00 0.00 82 1017.3
20260506080103 54 310 0.9 1.7 0.00 0.00 0.00 82 1017.3
20260506073504 54 336 0.0 1.7 0.00 0.00 0.00 82 1017.0
20260506073403 54 334 0.0 1.7 0.00 0.00 0.00 82 1017.0
20260506073203 54 331 0.0 1.7 0.00 0.00 0.00 82 1017.0
20260506073104 54 330 0.0 1.7 0.00 0.00 0.00 82 1017.0
20260506073003 54 324 0.0 1.7 0.00 0.00 0.00 82 1017.0
20260506072904 54 321 0.0 1.7 0.00 0.00 0.00 82 1016.9
20260506072803 54 317 0.0 1.7 0.00 0.00 0.00 81 1016.9
20260506072703 54 312 0.0 1.7 0.00 0.00 0.00 82 1016.9
20260506072603 54 310 0.0 1.7 0.00 0.00 0.00 81 1016.8
20260506072503 54 308 0.0 1.7 0.00 0.00 0.00 82 1016.8
20260506072305 54 298 0.0 0.9 0.00 0.00 0.00 81 1016.9
20260506072203 54 298 0.0 0.9 0.00 0.00 0.00 81 1016.8
20260506072103 54 298 0.0 0.9 0.00 0.00 0.00 81 1016.9
20260506072003 54 298 0.0 1.7 0.00 0.00 0.00 81 1016.9
20260506071903 54 298 0.0 1.7 0.00 0.00 0.00 81 1016.8
20260506071803 54 298 0.0 1.7 0.00 0.00 0.00 81 1016.8
20260506071703 54 298 0.0 1.7 0.00 0.00 0.00 81 1016.8
20260506071604 54 298 0.0 1.7 0.00 0.00 0.00 81 1016.7
20260506071503 54 298 0.0 1.7 0.00 0.00 0.00 81 1016.8
20260506071404 54 298 0.0 1.7 0.00 0.00 0.00 81 1016.7
20260506071303 54 298 0.0 1.7 0.00 0.00 0.00 81 1016.8
20260506071204 54 298 0.0 1.7 0.00 0.00 0.00 81 1016.8
20260506071104 54 298 0.0 1.7 0.00 0.00 0.00 81 1016.8
20260506071004 54 298 0.0 0.9 0.00 0.00 0.00 81 1016.9
20260506070904 54 298 0.0 0.9 0.00 0.00 0.00 81 1016.9
20260506070818 54 298 0.0 0.9 0.00 0.00 0.00 81 1016.8
20260506070704 54 298 0.0 0.9 0.00 0.00 0.00 81 1016.9
20260506070518 54 298 0.0 0.9 0.00 0.00 0.00 81 1016.9
20260506070404 54 298 0.0 0.9 0.00 0.00 0.00 81 1016.8
20260506070203 54 298 0.0 0.9 0.00 0.00 0.00 81 1016.9
20260506070104 54 298 0.0 0.9 0.00 0.00 0.00 81 1016.8
20260506062503 54 293 0.9 1.7 0.00 0.00 0.00 81 1016.9
20260506062403 54 295 0.9 1.7 0.00 0.00 0.00 81 1016.9
20260506062305 54 296 0.9 1.7 0.00 0.00 0.00 81 1016.8
20260506062203 54 297 0.9 1.7 0.00 0.00 0.00 81 1016.8
20260506062103 54 298 0.9 1.7 0.00 0.00 0.00 81 1016.8
20260506062004 54 298 0.9 1.7 0.00 0.00 0.00 81 1016.8
20260506061803 54 298 0.9 1.7 0.00 0.00 0.00 81 1016.8
20260506061703 54 298 0.9 1.7 0.00 0.00 0.00 81 1016.7
20260506061603 54 298 0.9 1.7 0.00 0.00 0.00 81 1016.9
20260506061503 54 298 0.0 1.7 0.00 0.00 0.00 81 1016.8
20260506061303 54 298 0.0 1.7 0.00 0.00 0.00 81 1016.8
20260506061203 54 298 0.0 1.7 0.00 0.00 0.00 81 1016.9
20260506061103 54 298 0.0 1.7 0.00 0.00 0.00 81 1016.8
20260506061005 54 298 0.0 1.7 0.00 0.00 0.00 81 1016.8
20260506060903 54 298 0.0 1.7 0.00 0.00 0.00 81 1016.8
20260506060803 54 298 0.0 1.7 0.00 0.00 0.00 81 1016.8
20260506060703 54 298 0.0 1.7 0.00 0.00 0.00 81 1016.9
20260506060603 54 298 0.0 1.7 0.00 0.00 0.00 81 1016.8
20260506060503 54 298 0.0 1.7 0.00 0.00 0.00 81 1016.8
20260506060303 54 298 0.0 1.7 0.00 0.00 0.00 81 1016.8
20260506060203 54 298 0.0 1.7 0.00 0.00 0.00 81 1016.8
20260506051303 55 340 0.9 1.7 0.00 0.00 0.00 81 1016.7
20260506051204 55 340 0.9 1.7 0.00 0.00 0.00 81 1016.7
20260506051103 55 335 0.9 1.7 0.00 0.00 0.00 81 1016.6
20260506051003 55 328 0.9 1.7 0.00 0.00 0.00 80 1016.6
20260506050904 55 314 0.9 1.7 0.00 0.00 0.00 81 1016.6
20260506050803 55 305 0.9 1.7 0.00 0.00 0.00 80 1016.6
20260506050703 55 300 0.9 1.7 0.00 0.00 0.00 80 1016.6
20260506050603 55 296 0.9 1.7 0.00 0.00 0.00 81 1016.6
20260506050503 55 292 0.9 1.7 0.00 0.00 0.00 81 1016.5
20260506050417 55 291 0.9 1.7 0.00 0.00 0.00 80 1016.6
20260506050403 55 290 0.9 1.7 0.00 0.00 0.00 80 1016.6
20260506050303 55 288 0.9 1.7 0.00 0.00 0.00 80 1016.7
20260506050103 55 294 0.9 1.7 0.00 0.00 0.00 80 1016.7
20260506045103 55 332 0.0 1.7 0.00 0.00 0.00 80 1016.7
20260506045003 55 322 0.0 1.7 0.00 0.00 0.00 80 1016.7
20260506044903 55 317 0.0 1.7 0.00 0.00 0.00 80 1016.6
20260506044804 55 312 0.0 1.7 0.00 0.00 0.00 80 1016.5
20260506044603 55 305 0.0 1.7 0.00 0.00 0.00 80 1016.6
20260506044517 55 304 0.0 1.7 0.00 0.00 0.00 80 1016.6
20260506044503 55 305 0.9 1.7 0.00 0.00 0.00 80 1016.5
20260506044404 55 305 0.9 1.7 0.00 0.00 0.00 80 1016.7
20260506044318 55 305 0.9 1.7 0.00 0.00 0.00 80 1016.5
20260506044003 55 297 0.9 1.7 0.00 0.00 0.00 80 1016.6
20260506043903 55 296 0.9 1.7 0.00 0.00 0.00 80 1016.6
20260506043803 55 296 0.9 1.7 0.00 0.00 0.00 80 1016.7
20260506043703 55 294 0.9 1.7 0.00 0.00 0.00 80 1016.6
20260506043604 55 291 0.9 1.7 0.00 0.00 0.00 80 1016.5
20260506043503 55 287 0.9 2.6 0.00 0.00 0.00 80 1016.6
20260506043404 55 281 0.9 2.6 0.00 0.00 0.00 80 1016.6
20260506043303 55 277 0.9 2.6 0.00 0.00 0.00 80 1016.6
20260506043203 55 278 0.9 2.6 0.00 0.00 0.00 79 1016.5
20260506043103 55 279 0.9 2.6 0.00 0.00 0.00 79 1016.6
20260506043018 55 282 0.9 2.6 0.00 0.00 0.00 79 1016.5
20260506043004 55 283 0.9 2.6 0.00 0.00 0.00 79 1016.5
20260506042903 55 285 0.9 2.6 0.00 0.00 0.00 79 1016.6
20260506042703 55 295 0.9 2.6 0.00 0.00 0.00 79 1016.5
20260506042604 55 298 0.9 2.6 0.00 0.00 0.00 79 1016.4
20260506042506 55 303 0.9 2.6 0.00 0.00 0.00 79 1016.5
20260506042404 55 310 0.9 2.6 0.00 0.00 0.00 79 1016.6
20260506042305 55 309 0.9 2.6 0.00 0.00 0.00 79 1016.5
20260506042203 55 309 0.9 2.6 0.00 0.00 0.00 79 1016.5
20260506042103 55 304 0.9 2.6 0.00 0.00 0.00 79 1016.4
20260506042003 55 297 0.9 2.6 0.00 0.00 0.00 79 1016.5
20260506041903 55 294 0.9 2.6 0.00 0.00 0.00 79 1016.4
20260506041803 55 289 1.7 2.6 0.00 0.00 0.00 79 1016.5
20260506041703 55 288 1.7 2.6 0.00 0.00 0.00 79 1016.5
20260506041603 55 286 1.7 2.6 0.00 0.00 0.00 79 1016.5
20260506041403 55 287 1.7 2.6 0.00 0.00 0.00 79 1016.4
20260506041303 55 287 1.7 2.6 0.00 0.00 0.00 79 1016.4
20260506041203 55 288 0.9 2.6 0.00 0.00 0.00 79 1016.5
20260506041003 55 291 0.9 2.6 0.00 0.00 0.00 79 1016.4
20260506040903 55 293 0.9 2.6 0.00 0.00 0.00 79 1016.4
20260506040703 55 295 0.9 1.7 0.00 0.00 0.00 79 1016.2
20260506040603 55 296 0.9 1.7 0.00 0.00 0.00 79 1016.3
20260506040503 55 297 0.9 1.7 0.00 0.00 0.00 79 1016.2
20260506040403 55 298 0.9 1.7 0.00 0.00 0.00 80 1016.2
20260506040303 55 299 0.9 1.7 0.00 0.00 0.00 79 1016.2
20260506040203 55 300 0.9 1.7 0.00 0.00 0.00 79 1016.1
20260506040119 55 299 0.9 2.6 0.00 0.00 0.00 79 1016.1
20260506040005 55 297 0.9 2.6 0.00 0.00 0.00 79 1016.1
20260506035705 55 293 0.9 2.6 0.00 0.00 0.00 79 1016.1
20260506035606 55 292 0.9 2.6 0.00 0.00 0.00 79 1016.1
20260506035505 55 291 0.9 2.6 0.00 0.00 0.00 79 1016.1
20260506035403 55 290 0.9 2.6 0.00 0.00 0.00 79 1016.0
20260506035306 55 290 0.9 2.6 0.00 0.00 0.00 79 1016.0
20260506035203 55 289 0.9 2.6 0.00 0.00 0.00 79 1016.0
20260506035103 55 288 0.9 1.7 0.00 0.00 0.00 79 1016.1
20260506035003 55 288 0.9 1.7 0.00 0.00 0.00 79 1016.0
20260506034903 55 288 0.9 1.7 0.00 0.00 0.00 79 1016.0
20260506034803 55 286 0.9 2.6 0.00 0.00 0.00 79 1016.0
20260506034703 55 285 0.9 2.6 0.00 0.00 0.00 79 1016.0
20260506034603 55 284 0.9 2.6 0.00 0.00 0.00 79 1016.0
20260506034503 55 283 0.9 2.6 0.00 0.00 0.00 79 1016.0
20260506034405 55 282 0.9 2.6 0.00 0.00 0.00 79 1016.0
20260506034305 55 282 0.9 2.6 0.00 0.00 0.00 79 1016.0
20260506034205 55 282 0.9 2.6 0.00 0.00 0.00 79 1015.9
20260506034103 55 281 0.9 2.6 0.00 0.00 0.00 79 1015.9
20260506033903 55 280 0.9 2.6 0.00 0.00 0.00 79 1016.0
20260506033805 55 280 0.9 2.6 0.00 0.00 0.00 79 1015.9
20260506033703 55 281 0.9 2.6 0.00 0.00 0.00 79 1015.8
20260506033603 55 281 0.9 2.6 0.00 0.00 0.00 79 1015.8
20260506033504 55 281 0.9 2.6 0.00 0.00 0.00 79 1015.9
20260506033403 55 281 0.9 1.7 0.00 0.00 0.00 79 1015.8
20260506033303 55 281 0.0 1.7 0.00 0.00 0.00 79 1015.8
20260506033203 55 281 0.9 1.7 0.00 0.00 0.00 79 1015.8
20260506033103 55 281 0.9 2.6 0.00 0.00 0.00 79 1015.8
20260506033003 55 281 0.9 2.6 0.00 0.00 0.00 79 1015.8
20260506032904 55 281 0.9 2.6 0.00 0.00 0.00 79 1015.8
20260506032803 55 281 0.9 2.6 0.00 0.00 0.00 79 1015.8
20260506032704 55 281 0.9 2.6 0.00 0.00 0.00 79 1015.9
20260506032618 55 281 0.9 2.6 0.00 0.00 0.00 79 1015.9
20260506032603 55 281 0.9 2.6 0.00 0.00 0.00 79 1016.0
20260506032417 55 280 0.9 2.6 0.00 0.00 0.00 79 1015.8
20260506032318 55 279 0.9 2.6 0.00 0.00 0.00 79 1015.8
20260506032305 55 278 0.9 2.6 0.00 0.00 0.00 79 1015.8
20260506032003 55 276 0.9 2.6 0.00 0.00 0.00 79 1015.9
20260506031903 55 276 0.9 2.6 0.00 0.00 0.00 79 1015.9
20260506031804 55 276 0.9 2.6 0.00 0.00 0.00 79 1015.9
20260506031705 55 275 1.7 2.6 0.00 0.00 0.00 79 1015.9
20260506031605 55 274 0.9 2.6 0.00 0.00 0.00 79 1015.9
20260506031505 56 275 0.9 2.6 0.00 0.00 0.00 79 1015.9
20260506031403 56 276 0.9 2.6 0.00 0.00 0.00 79 1015.9
20260506031320 56 277 0.9 2.6 0.00 0.00 0.00 79 1015.9
20260506031304 56 277 0.9 2.6 0.00 0.00 0.00 79 1015.9
20260506031003 56 281 0.9 2.6 0.00 0.00 0.00 79 1016.0
20260506030904 56 281 0.9 2.6 0.00 0.00 0.00 79 1015.9
20260506030803 56 282 0.9 2.6 0.00 0.00 0.00 79 1015.9
20260506030704 56 284 0.9 2.6 0.00 0.00 0.00 79 1015.9
20260506030603 56 288 0.9 1.7 0.00 0.00 0.00 79 1016.0
20260506030503 56 288 0.9 1.7 0.00 0.00 0.00 79 1016.0
20260506030403 56 288 0.9 1.7 0.00 0.00 0.00 79 1015.9
20260506030303 56 287 0.9 1.7 0.00 0.00 0.00 79 1015.9
20260506030203 56 286 0.9 3.5 0.00 0.00 0.00 79 1015.9
20260506030103 56 286 0.9 3.5 0.00 0.00 0.00 79 1015.9
20260506030005 56 286 0.9 3.5 0.00 0.00 0.00 79 1016.0
20260506025903 56 288 0.9 3.5 0.00 0.00 0.00 79 1016.0
20260506025803 56 290 0.9 3.5 0.00 0.00 0.00 79 1015.9
20260506025603 56 294 0.9 3.5 0.00 0.00 0.00 79 1015.9
20260506025503 56 296 0.9 3.5 0.00 0.00 0.00 79 1015.9
20260506025403 56 298 0.9 3.5 0.00 0.00 0.00 79 1015.9
20260506025306 56 300 0.9 3.5 0.00 0.00 0.00 79 1015.9
20260506025203 56 307 0.9 1.7 0.00 0.00 0.00 79 1015.9
20260506025103 56 310 0.9 1.7 0.00 0.00 0.00 79 1015.9
20260506025003 56 314 0.9 1.7 0.00 0.00 0.00 79 1015.9
20260506024903 56 315 0.9 1.7 0.00 0.00 0.00 79 1016.0
20260506024818 56 315 0.9 1.7 0.00 0.00 0.00 79 1015.8
20260506024803 56 315 0.9 1.7 0.00 0.00 0.00 79 1016.0
20260506024703 56 315 0.9 1.7 0.00 0.00 0.00 78 1015.9
20260506024503 56 311 0.9 2.6 0.00 0.00 0.00 78 1016.0
20260506024403 56 308 0.9 2.6 0.00 0.00 0.00 78 1015.9
20260506024304 56 307 0.9 2.6 0.00 0.00 0.00 78 1015.8
20260506024203 56 307 0.9 2.6 0.00 0.00 0.00 78 1015.9
20260506024003 56 297 0.9 2.6 0.00 0.00 0.00 78 1015.9
20260506023903 56 293 0.9 2.6 0.00 0.00 0.00 78 1015.8
20260506023803 56 290 0.9 2.6 0.00 0.00 0.00 78 1015.8
20260506023717 56 286 0.9 2.6 0.00 0.00 0.00 78 1015.9
20260506023703 56 284 0.9 2.6 0.00 0.00 0.00 78 1015.9
20260506023603 56 279 0.9 2.6 0.00 0.00 0.00 78 1015.9
20260506023304 56 279 0.9 2.6 0.00 0.00 0.00 78 1015.9
20260506023203 56 279 0.9 2.6 0.00 0.00 0.00 78 1015.9
20260506023103 56 281 0.9 2.6 0.00 0.00 0.00 78 1015.9
20260506023004 56 283 0.9 2.6 0.00 0.00 0.00 78 1015.9
20260506022904 56 285 0.9 2.6 0.00 0.00 0.00 78 1015.9
20260506022803 56 287 0.9 2.6 0.00 0.00 0.00 78 1015.9
20260506022703 56 290 0.9 2.6 0.00 0.00 0.00 78 1015.8
20260506022603 56 292 0.9 2.6 0.00 0.00 0.00 78 1015.8
20260506022503 56 294 0.9 1.7 0.00 0.00 0.00 78 1015.8
20260506022416 56 293 0.9 1.7 0.00 0.00 0.00 78 1015.8
20260506022403 56 292 0.9 1.7 0.00 0.00 0.00 78 1015.8
20260506022317 56 290 0.9 1.7 0.00 0.00 0.00 78 1015.8
20260506022116 56 286 0.9 1.7 0.00 0.00 0.00 78 1015.8
20260506022003 56 285 0.9 1.7 0.00 0.00 0.00 78 1015.7
20260506021803 56 279 0.9 2.6 0.00 0.00 0.00 78 1015.8
20260506021717 56 281 0.9 2.6 0.00 0.00 0.00 78 1015.8
20260506021703 56 282 0.9 2.6 0.00 0.00 0.00 78 1015.8
20260506021603 56 284 0.9 2.6 0.00 0.00 0.00 78 1015.8
20260506021403 56 285 0.9 2.6 0.00 0.00 0.00 78 1015.8
20260506021303 56 287 0.9 2.6 0.00 0.00 0.00 78 1015.8
20260506021203 56 287 0.9 2.6 0.00 0.00 0.00 78 1015.8
20260506021104 56 287 0.9 2.6 0.00 0.00 0.00 78 1015.8
20260506020904 56 288 0.9 2.6 0.00 0.00 0.00 78 1015.9
20260506020803 56 290 0.9 1.7 0.00 0.00 0.00 78 1016.0
20260506020719 56 287 0.9 1.7 0.00 0.00 0.00 78 1015.9
20260506020704 56 286 0.9 1.7 0.00 0.00 0.00 78 1015.9
20260506020603 56 283 0.9 2.6 0.00 0.00 0.00 78 1015.9
20260506020403 56 282 0.9 2.6 0.00 0.00 0.00 78 1015.9
20260506020304 56 283 0.9 2.6 0.00 0.00 0.00 78 1015.9
20260506020104 56 285 0.9 2.6 0.00 0.00 0.00 78 1015.9
20260506020004 56 285 0.9 2.6 0.00 0.00 0.00 78 1015.8
20260506015903 56 288 0.9 2.6 0.00 0.00 0.00 78 1015.9
20260506015803 56 293 0.9 2.6 0.00 0.00 0.00 78 1015.9
20260506015703 56 293 0.9 2.6 0.00 0.00 0.00 78 1015.9
20260506015603 56 296 0.9 2.6 0.00 0.00 0.00 78 1015.9
20260506015503 56 298 0.9 2.6 0.00 0.00 0.00 78 1015.9
20260506015403 56 300 0.9 2.6 0.00 0.00 0.00 77 1015.8
20260506015305 56 301 0.9 2.6 0.00 0.00 0.00 77 1016.0
20260506015203 56 299 0.9 2.6 0.00 0.00 0.00 77 1015.8
20260506015103 56 298 0.9 2.6 0.00 0.00 0.00 77 1015.9
20260506015003 56 297 0.9 2.6 0.00 0.00 0.00 77 1015.8
20260506014903 56 294 0.9 2.6 0.00 0.00 0.00 77 1016.0
20260506014818 56 290 0.9 2.6 0.00 0.00 0.00 78 1015.8
20260506014803 56 288 0.9 2.6 0.00 0.00 0.00 78 1015.8
20260506014703 56 284 0.9 2.6 0.00 0.00 0.00 78 1015.8
20260506014503 56 285 0.9 2.6 0.00 0.00 0.00 77 1015.8
20260506014403 56 284 0.9 2.6 0.00 0.00 0.00 77 1015.8
20260506014303 56 281 0.9 2.6 0.00 0.00 0.00 78 1015.8
20260506014203 56 280 0.9 2.6 0.00 0.00 0.00 78 1015.8
20260506014104 56 282 0.9 2.6 0.00 0.00 0.00 78 1015.9
20260506014003 57 285 0.9 2.6 0.00 0.00 0.00 78 1015.9
20260506013903 56 286 0.9 2.6 0.00 0.00 0.00 78 1015.9
20260506013803 56 288 1.7 2.6 0.00 0.00 0.00 78 1015.9
20260506013703 56 291 1.7 2.6 0.00 0.00 0.00 78 1015.9
20260506013603 56 291 1.7 2.6 0.00 0.00 0.00 78 1015.9
20260506013503 57 290 1.7 2.6 0.00 0.00 0.00 78 1015.9
20260506013403 56 290 1.7 2.6 0.00 0.00 0.00 78 1015.9
20260506013304 57 292 1.7 2.6 0.00 0.00 0.00 78 1015.8
20260506013203 57 294 1.7 2.6 0.00 0.00 0.00 78 1015.9
20260506013103 56 295 1.7 2.6 0.00 0.00 0.00 78 1015.8
20260506013003 57 295 1.7 2.6 0.00 0.00 0.00 78 1015.9
20260506012903 57 296 1.7 2.6 0.00 0.00 0.00 78 1015.9
20260506012818 57 299 1.7 2.6 0.00 0.00 0.00 78 1015.8
20260506012803 57 299 0.9 2.6 0.00 0.00 0.00 78 1015.9
20260506012703 57 300 0.9 2.6 0.00 0.00 0.00 78 1015.8
20260506012503 57 300 0.9 2.6 0.00 0.00 0.00 78 1015.9
20260506012418 57 299 0.9 2.6 0.00 0.00 0.00 78 1015.8
20260506012403 57 298 0.9 2.6 0.00 0.00 0.00 78 1015.8
20260506012317 57 297 0.9 2.6 0.00 0.00 0.00 78 1015.8
20260506012307 57 296 0.9 2.6 0.00 0.00 0.00 78 1015.8
20260506012003 57 287 0.9 2.6 0.00 0.00 0.00 78 1015.9
20260506011903 57 289 0.9 2.6 0.00 0.00 0.00 78 1015.9
20260506011803 57 291 0.9 2.6 0.00 0.00 0.00 78 1015.9
20260506011703 57 295 0.9 2.6 0.00 0.00 0.00 79 1015.8
20260506011603 57 298 0.9 2.6 0.00 0.00 0.00 79 1015.9
20260506011503 57 301 0.9 2.6 0.00 0.00 0.00 78 1016.0
20260506011403 57 305 0.9 2.6 0.00 0.00 0.00 78 1015.9
20260506011317 57 307 0.9 2.6 0.00 0.00 0.00 78 1015.9
20260506011303 57 308 0.9 2.6 0.00 0.00 0.00 78 1015.9
20260506011203 57 314 0.9 2.6 0.00 0.00 0.00 78 1015.9
20260506011003 57 327 0.9 1.7 0.00 0.00 0.00 78 1015.9
20260506010903 57 326 0.9 2.6 0.00 0.00 0.00 78 1015.9
20260506010818 57 324 0.9 2.6 0.00 0.00 0.00 78 1015.9
20260506010803 57 324 0.9 2.6 0.00 0.00 0.00 79 1015.9
20260506010703 57 323 0.9 2.6 0.00 0.00 0.00 79 1015.9
20260506010503 57 320 0.9 2.6 0.00 0.00 0.00 79 1015.9
20260506010403 57 319 0.9 2.6 0.00 0.00 0.00 78 1015.9
20260506010304 57 320 0.9 2.6 0.00 0.00 0.00 78 1015.9
20260506010203 57 315 0.9 2.6 0.00 0.00 0.00 78 1015.9
20260506010105 57 311 1.7 2.6 0.00 0.00 0.00 78 1015.9
20260506010004 57 306 0.9 2.6 0.00 0.00 0.00 78 1015.9
20260506005904 57 304 0.9 2.6 0.00 0.00 0.00 78 1015.9
20260506005803 57 301 0.9 2.6 0.00 0.00 0.00 78 1015.9
20260506005703 57 299 0.9 2.6 0.00 0.00 0.00 78 1015.9
20260506005603 57 296 0.9 2.6 0.00 0.00 0.00 78 1015.8
20260506005503 57 295 0.9 2.6 0.00 0.00 0.00 78 1015.8
20260506005403 57 294 0.9 2.6 0.00 0.00 0.00 78 1015.8
20260506005305 57 291 0.9 2.6 0.00 0.00 0.00 78 1015.8
20260506005219 57 292 0.9 2.6 0.00 0.00 0.00 78 1015.9
20260506005203 57 293 0.9 2.6 0.00 0.00 0.00 78 1015.9
20260506005103 57 294 0.9 2.6 0.00 0.00 0.00 78 1015.8
20260506005017 57 295 0.9 2.6 0.00 0.00 0.00 78 1015.8
20260506004917 57 296 0.9 2.6 0.00 0.00 0.00 78 1015.8
20260506004903 57 297 0.9 2.6 0.00 0.00 0.00 78 1015.9
20260506004718 57 300 0.9 3.5 0.00 0.00 0.00 78 1015.8
20260506004604 57 302 0.9 3.5 0.00 0.00 0.00 78 1015.8
20260506004303 57 307 0.9 3.5 0.00 0.00 0.00 78 1015.9
20260506004203 57 308 0.9 3.5 0.00 0.00 0.00 78 1015.8
20260506004103 57 308 0.9 3.5 0.00 0.00 0.00 78 1015.9
20260506003903 57 307 0.9 3.5 0.00 0.00 0.00 78 1015.9
20260506003803 57 307 0.9 3.5 0.00 0.00 0.00 78 1015.8
20260506003704 57 307 0.9 2.6 0.00 0.00 0.00 78 1015.9
20260506003603 57 307 0.9 2.6 0.00 0.00 0.00 78 1015.9
20260506003517 57 306 0.9 2.6 0.00 0.00 0.00 78 1015.8
20260506003503 57 305 0.9 1.7 0.00 0.00 0.00 78 1015.9
20260506003403 57 302 0.9 1.7 0.00 0.00 0.00 78 1015.8
20260506003317 57 298 0.9 2.6 0.00 0.00 0.00 78 1016.0
20260506003203 57 299 0.9 3.5 0.00 0.00 0.00 78 1015.9
20260506003003 57 295 0.9 3.5 0.00 0.00 0.00 78 1015.9
20260506002903 57 292 0.9 3.5 0.00 0.00 0.00 78 1015.9
20260506002803 57 291 1.7 3.5 0.00 0.00 0.00 78 1015.9
20260506002703 57 293 1.7 3.5 0.00 0.00 0.00 77 1015.9
20260506002616 57 294 1.7 3.5 0.00 0.00 0.00 77 1015.9
20260506002603 57 295 1.7 3.5 0.00 0.00 0.00 77 1015.9
20260506002503 57 297 1.7 3.5 0.00 0.00 0.00 77 1015.9
20260506002306 57 294 0.9 3.5 0.00 0.00 0.00 77 1016.0
20260506002203 57 294 0.9 2.6 0.00 0.00 0.00 77 1016.0
20260506002104 57 297 0.9 2.6 0.00 0.00 0.00 77 1015.9
20260506002003 57 302 0.9 2.6 0.00 0.00 0.00 77 1015.9
20260506001903 58 306 0.9 2.6 0.00 0.00 0.00 77 1015.9
20260506001803 58 308 0.9 2.6 0.00 0.00 0.00 77 1015.9
20260506001703 58 306 0.9 2.6 0.00 0.00 0.00 77 1015.9
20260506001603 58 304 0.9 2.6 0.00 0.00 0.00 77 1015.9
20260506001503 58 304 0.9 2.6 0.00 0.00 0.00 77 1015.9
20260506001403 58 309 0.9 2.6 0.00 0.00 0.00 77 1015.8
20260506001303 58 313 0.9 2.6 0.00 0.00 0.00 77 1015.8
20260506001203 58 312 0.9 2.6 0.00 0.00 0.00 77 1015.9
20260506001103 58 310 0.9 2.6 0.00 0.00 0.00 78 1015.9
20260506001003 58 309 0.9 2.6 0.00 0.00 0.00 77 1015.8
20260506000903 58 310 1.7 2.6 0.00 0.00 0.00 77 1015.9
20260506000803 58 311 1.7 2.6 0.00 0.00 0.00 77 1016.0
20260506000703 58 309 1.7 2.6 0.00 0.00 0.00 77 1016.0
20260506000603 58 307 1.7 2.6 0.00 0.00 0.00 77 1016.0
20260506000503 58 306 0.9 2.6 0.00 0.00 0.00 77 1016.0
20260506000403 58 305 0.9 2.6 0.00 0.00 0.00 77 1015.9
20260506000303 58 302 0.9 2.6 0.00 0.00 0.00 77 1016.1
20260506000204 58 303 0.9 2.6 0.00 0.00 0.00 77 1016.1
20260506000103 58 307 0.9 2.6 0.00 0.00 0.00 77 1016.1
20260506000005 58 308 0.9 2.6 0.00 0.00 0.00 77 1016.1
20260505235904 58 306 0.9 2.6 0.00 0.00 0.00 77 1016.0
20260505235803 58 304 1.7 2.6 0.00 0.00 0.00 77 1016.0
20260505235703 58 305 1.7 2.6 0.00 0.00 0.00 77 1016.0
20260505235603 58 307 1.7 2.6 0.00 0.00 0.00 77 1016.0
20260505235503 58 307 1.7 2.6 0.00 0.00 0.00 77 1016.0
20260505235403 58 306 1.7 2.6 0.00 0.00 0.00 77 1016.0
20260505235305 58 308 1.7 2.6 0.00 0.00 0.00 77 1016.0
20260505235203 58 307 1.7 2.6 0.00 0.00 0.00 77 1016.0
20260505235103 58 305 1.7 2.6 0.00 0.00 0.00 77 1016.1
20260505235003 58 303 1.7 2.6 0.00 0.00 0.00 77 1016.0
20260505234804 58 304 1.7 3.5 0.00 0.00 0.00 77 1016.1
20260505234703 58 306 1.7 3.5 0.00 0.00 0.00 77 1016.0
20260505234603 58 305 1.7 3.5 0.00 0.00 0.00 77 1016.0
20260505234503 58 305 1.7 3.5 0.00 0.00 0.00 77 1016.1
20260505234403 58 305 1.7 3.5 0.00 0.00 0.00 77 1016.1
20260505234303 58 304 1.7 3.5 0.00 0.00 0.00 77 1016.1
20260505234203 58 302 1.7 3.5 0.00 0.00 0.00 76 1016.2
20260505234117 58 301 1.7 3.5 0.00 0.00 0.00 76 1016.1
20260505234103 58 300 1.7 3.5 0.00 0.00 0.00 76 1016.1
20260505234005 58 298 1.7 3.5 0.00 0.00 0.00 77 1016.1
20260505233803 58 289 1.7 3.5 0.00 0.00 0.00 77 1016.1
20260505233703 58 285 1.7 3.5 0.00 0.00 0.00 77 1016.2
20260505233603 58 283 1.7 3.5 0.00 0.00 0.00 77 1016.2
20260505233503 58 283 1.7 3.5 0.00 0.00 0.00 77 1016.2
20260505233404 58 282 1.7 3.5 0.00 0.00 0.00 77 1016.1
20260505233303 58 283 1.7 3.5 0.00 0.00 0.00 77 1016.1
20260505233103 58 291 1.7 3.5 0.00 0.00 0.00 77 1016.1
20260505233003 58 293 1.7 2.6 0.00 0.00 0.00 77 1016.1
20260505232903 58 296 1.7 2.6 0.00 0.00 0.00 77 1016.2
20260505232803 58 302 1.7 6.1 0.00 0.00 0.00 77 1016.2
20260505232705 58 304 1.7 6.1 0.00 0.00 0.00 77 1016.1
20260505232603 58 309 1.7 6.1 0.00 0.00 0.00 77 1016.1
20260505232517 58 308 1.7 6.1 0.00 0.00 0.00 77 1016.1
20260505232503 58 309 1.7 6.1 0.00 0.00 0.00 77 1016.2
20260505232403 58 311 1.7 6.1 0.00 0.00 0.00 77 1016.1
20260505232203 58 310 1.7 6.1 0.00 0.00 0.00 77 1016.2
20260505232103 58 308 1.7 6.1 0.00 0.00 0.00 77 1016.2
20260505232003 58 309 1.7 6.1 0.00 0.00 0.00 77 1016.1
20260505231905 58 309 1.7 6.1 0.00 0.00 0.00 76 1016.2
20260505231720 58 303 1.7 4.3 0.00 0.00 0.00 76 1016.1
20260505231703 58 303 1.7 4.3 0.00 0.00 0.00 76 1016.2
20260505231603 58 299 1.7 3.5 0.00 0.00 0.00 77 1016.1
20260505231403 58 293 1.7 3.5 0.00 0.00 0.00 77 1016.2
20260505231303 58 289 1.7 3.5 0.00 0.00 0.00 77 1016.2
20260505231203 58 289 1.7 3.5 0.00 0.00 0.00 77 1016.2
20260505231105 58 287 1.7 3.5 0.00 0.00 0.00 77 1016.2
20260505231018 58 286 1.7 3.5 0.00 0.00 0.00 77 1016.2
20260505231003 58 284 1.7 3.5 0.00 0.00 0.00 76 1016.2
20260505230918 58 288 1.7 3.5 0.00 0.00 0.00 76 1016.2
20260505230903 58 289 1.7 3.5 0.00 0.00 0.00 76 1016.2
20260505230618 58 293 1.7 3.5 0.00 0.00 0.00 76 1016.2
20260505230603 59 294 1.7 3.5 0.00 0.00 0.00 76 1016.2
20260505230503 59 294 1.7 2.6 0.00 0.00 0.00 76 1016.1
20260505230303 59 295 1.7 2.6 0.00 0.00 0.00 76 1016.2
20260505230203 59 296 1.7 3.5 0.00 0.00 0.00 76 1016.3
20260505230003 59 294 1.7 3.5 0.00 0.00 0.00 76 1016.2
20260505225918 59 291 1.7 3.5 0.00 0.00 0.00 76 1016.3
20260505225904 59 290 1.7 3.5 0.00 0.00 0.00 76 1016.3
20260505225803 59 285 1.7 3.5 0.00 0.00 0.00 76 1016.3
20260505225603 59 283 1.7 3.5 0.00 0.00 0.00 76 1016.3
20260505225503 59 284 1.7 3.5 0.00 0.00 0.00 76 1016.3
20260505225403 59 286 1.7 3.5 0.00 0.00 0.00 76 1016.2
20260505225305 59 285 1.7 3.5 0.00 0.00 0.00 76 1016.3
20260505225203 59 285 1.7 3.5 0.00 0.00 0.00 76 1016.3
20260505225103 59 289 1.7 3.5 0.00 0.00 0.00 76 1016.2
20260505225017 59 289 1.7 3.5 0.00 0.00 0.00 76 1016.3
20260505225003 59 290 1.7 3.5 0.00 0.00 0.00 76 1016.4
20260505224904 59 292 1.7 3.5 0.00 0.00 0.00 76 1016.3
20260505224703 59 303 1.7 3.5 0.00 0.00 0.00 76 1016.3
20260505224603 59 302 1.7 3.5 0.00 0.00 0.00 76 1016.3
20260505224503 59 300 1.7 3.5 0.00 0.00 0.00 76 1016.3
20260505224403 59 295 1.7 3.5 0.00 0.00 0.00 76 1016.3
20260505224303 59 296 1.7 3.5 0.00 0.00 0.00 76 1016.3
20260505224203 59 294 1.7 3.5 0.00 0.00 0.00 76 1016.3
20260505224103 59 291 1.7 3.5 0.00 0.00 0.00 76 1016.3
20260505224004 59 292 1.7 3.5 0.00 0.00 0.00 76 1016.3
20260505223903 59 291 1.7 3.5 0.00 0.00 0.00 76 1016.3
20260505223803 59 289 1.7 3.5 0.00 0.00 0.00 76 1016.3
20260505223703 59 285 1.7 3.5 0.00 0.00 0.00 76 1016.2
20260505223603 59 286 1.7 3.5 0.00 0.00 0.00 76 1016.3
20260505223503 59 285 1.7 3.5 0.00 0.00 0.00 76 1016.4
20260505223303 59 288 1.7 3.5 0.00 0.00 0.00 76 1016.4
20260505223203 59 288 1.7 3.5 0.00 0.00 0.00 77 1016.3
20260505223103 59 286 1.7 3.5 0.00 0.00 0.00 77 1016.4
20260505223003 59 283 1.7 3.5 0.00 0.00 0.00 76 1016.3
20260505222903 59 284 1.7 3.5 0.00 0.00 0.00 77 1016.3
20260505222803 59 279 1.7 3.5 0.00 0.00 0.00 77 1016.4
20260505222703 59 278 1.7 3.5 0.00 0.00 0.00 77 1016.3
20260505222603 59 276 1.7 3.5 0.00 0.00 0.00 77 1016.4
20260505222503 59 272 1.7 4.3 0.00 0.00 0.00 76 1016.3
20260505222403 59 273 1.7 4.3 0.00 0.00 0.00 76 1016.4
20260505222305 59 272 1.7 4.3 0.00 0.00 0.00 76 1016.4
20260505222203 59 272 1.7 4.3 0.00 0.00 0.00 76 1016.3
20260505222103 59 275 1.7 4.3 0.00 0.00 0.00 76 1016.4
20260505222004 59 276 1.7 4.3 0.00 0.00 0.00 76 1016.4
20260505221903 59 275 1.7 4.3 0.00 0.00 0.00 76 1016.4
20260505221803 59 279 1.7 4.3 0.00 0.00 0.00 76 1016.3
20260505221603 59 284 1.7 4.3 0.00 0.00 0.00 76 1016.4
20260505221518 59 286 1.7 4.3 0.00 0.00 0.00 76 1016.4
20260505221503 59 288 1.7 4.3 0.00 0.00 0.00 76 1016.4
20260505221403 59 288 1.7 4.3 0.00 0.00 0.00 76 1016.5
20260505221203 59 289 1.7 5.2 0.00 0.00 0.00 76 1016.4
20260505221117 59 288 1.7 5.2 0.00 0.00 0.00 76 1016.5
20260505221103 59 289 1.7 5.2 0.00 0.00 0.00 76 1016.5
20260505221003 59 290 1.7 5.2 0.00 0.00 0.00 76 1016.5
20260505220803 59 286 1.7 5.2 0.00 0.00 0.00 76 1016.5
20260505220703 59 287 1.7 5.2 0.00 0.00 0.00 76 1016.4
20260505220603 59 285 1.7 5.2 0.00 0.00 0.00 76 1016.5
20260505220503 59 286 1.7 5.2 0.00 0.00 0.00 76 1016.5
20260505220403 59 283 2.6 5.2 0.00 0.00 0.00 76 1016.4
20260505220203 59 280 1.7 3.5 0.00 0.00 0.00 76 1016.5
20260505220117 60 278 1.7 3.5 0.00 0.00 0.00 76 1016.4
20260505220104 60 277 2.6 3.5 0.00 0.00 0.00 76 1016.4
20260505220004 60 274 2.6 3.5 0.00 0.00 0.00 76 1016.3
20260505215803 60 274 2.6 5.2 0.00 0.00 0.00 77 1016.4
20260505215703 60 274 2.6 5.2 0.00 0.00 0.00 76 1016.5
20260505215603 60 275 2.6 5.2 0.00 0.00 0.00 76 1016.4
20260505215518 60 276 2.6 5.2 0.00 0.00 0.00 76 1016.4
20260505215503 60 275 2.6 5.2 0.00 0.00 0.00 76 1016.4
20260505215403 60 279 2.6 5.2 0.00 0.00 0.00 76 1016.4
20260505215317 60 279 2.6 5.2 0.00 0.00 0.00 76 1016.4
20260505215203 60 278 2.6 5.2 0.00 0.00 0.00 76 1016.4
20260505215117 60 279 2.6 5.2 0.00 0.00 0.00 75 1016.4
20260505215003 60 279 2.6 5.2 0.00 0.00 0.00 75 1016.4
20260505214918 60 279 2.6 5.2 0.00 0.00 0.00 75 1016.4
20260505214803 60 280 2.6 5.2 0.00 0.00 0.00 76 1016.4
20260505214618 60 278 1.7 5.2 0.00 0.00 0.00 76 1016.4
20260505214604 60 278 1.7 5.2 0.00 0.00 0.00 76 1016.4
20260505214503 60 277 1.7 5.2 0.00 0.00 0.00 76 1016.4
20260505214417 60 277 1.7 5.2 0.00 0.00 0.00 76 1016.4
20260505214317 60 277 1.7 5.2 0.00 0.00 0.00 77 1016.3
20260505214304 60 277 2.6 5.2 0.00 0.00 0.00 76 1016.3
20260505214003 60 283 2.6 5.2 0.00 0.00 0.00 76 1016.4
20260505213903 60 283 1.7 5.2 0.00 0.00 0.00 76 1016.4
20260505213803 60 282 1.7 5.2 0.00 0.00 0.00 76 1016.4
20260505213703 60 281 1.7 4.3 0.00 0.00 0.00 76 1016.4
20260505213603 60 282 2.6 4.3 0.00 0.00 0.00 75 1016.4
20260505213503 60 281 1.7 4.3 0.00 0.00 0.00 75 1016.5